EW4118 Weather Reports


Display with metric or nautical units.
time (UTC)temp
F
wind
direction
speed
MPH
gust
MPH
rain 1hr
in
rain 24hr
in
rain mn
in
humidity
%
barometer
mb
20180621232610 62 0 0.0 0.0 0.00 0.72 0.72 93 1009.2
20180621232509 62 355 0.0 3.0 0.00 0.72 0.72 93 1009.1
20180621232410 62 355 0.0 3.0 0.00 0.72 0.72 93 1009.1
20180621232310 62 355 0.0 3.0 0.00 0.72 0.72 93 1009.1
20180621232209 62 355 0.0 3.0 0.00 0.72 0.72 93 1009.1
20180621232110 62 355 1.0 4.0 0.00 0.72 0.72 93 1009.2
20180621232010 62 355 1.0 4.0 0.00 0.72 0.72 93 1009.2
20180621231909 62 355 1.0 4.0 0.00 0.72 0.72 92 1009.1
20180621231810 62 355 1.0 4.0 0.00 0.72 0.72 92 1009.1
20180621231712 62 355 0.0 3.0 0.00 0.72 0.72 92 1009.0
20180621231710 62 355 1.0 4.0 0.00 0.72 0.72 92 1009.2
20180621231609 62 355 1.0 4.0 0.00 0.72 0.72 92 1009.1
20180621231510 62 355 1.0 4.0 0.00 0.72 0.72 92 1009.2
20180621231409 62 355 1.0 4.0 0.00 0.72 0.72 92 1009.2
20180621231309 62 355 1.0 4.0 0.00 0.72 0.72 92 1009.2
20180621231209 62 355 1.0 4.0 0.00 0.72 0.72 92 1009.2
20180621231110 62 355 0.0 3.0 0.00 0.72 0.72 92 1009.3
20180621231010 62 355 0.0 3.0 0.00 0.72 0.72 92 1009.3
20180621230910 62 355 1.0 3.0 0.00 0.72 0.72 92 1009.2
20180621230810 62 355 1.0 3.0 0.00 0.72 0.72 92 1009.2
20180621230709 62 355 1.0 3.0 0.00 0.72 0.72 92 1009.3
20180621230609 62 355 1.0 3.0 0.00 0.72 0.72 92 1009.2
20180621230510 62 355 1.0 3.0 0.00 0.72 0.72 92 1009.3
20180621230409 62 355 1.0 3.0 0.00 0.72 0.72 92 1009.2
20180621230309 62 355 0.0 3.0 0.00 0.72 0.72 92 1009.3
20180621230210 62 355 1.0 3.0 0.00 0.72 0.72 92 1009.3
20180621230109 62 355 1.0 3.0 0.00 0.72 0.72 92 1009.3
20180621230009 62 355 0.0 3.0 0.00 0.72 0.72 92 1009.4
20180621225910 62 353 0.0 3.0 0.00 0.72 0.72 92 1009.3
20180621225908 62 355 0.0 2.0 0.00 0.72 0.72 92 1009.1
20180621225809 62 351 1.0 4.0 0.00 0.72 0.72 92 1009.4
20180621225709 62 351 1.0 4.0 0.00 0.72 0.72 92 1009.3
20180621225610 62 351 1.0 4.0 0.00 0.72 0.72 91 1009.3
20180621225510 62 351 1.0 4.0 0.00 0.72 0.72 92 1009.3
20180621225409 62 353 1.0 4.0 0.00 0.72 0.72 91 1009.3
20180621225310 62 352 1.0 4.0 0.00 0.72 0.72 92 1009.3
20180621225210 62 352 1.0 4.0 0.00 0.72 0.72 92 1009.3
20180621225109 62 352 1.0 4.0 0.00 0.72 0.72 92 1009.3
20180621225010 62 352 1.0 4.0 0.00 0.72 0.72 92 1009.3
20180621224910 62 352 1.0 4.0 0.00 0.72 0.72 92 1009.4
20180621224809 62 352 1.0 4.0 0.00 0.72 0.72 92 1009.4
20180621224710 62 339 1.0 4.0 0.00 0.72 0.72 92 1009.3
20180621224609 62 334 1.0 4.0 0.00 0.72 0.72 92 1009.3
20180621224509 62 324 1.0 6.0 0.00 0.72 0.72 92 1009.3
20180621224410 62 299 1.0 6.0 0.00 0.72 0.72 92 1009.3
20180621224309 62 246 0.0 6.0 0.00 0.72 0.72 92 1009.2
20180621224209 62 273 1.0 6.0 0.00 0.72 0.72 92 1009.2
20180621224110 62 288 1.0 6.0 0.00 0.72 0.72 92 1009.2
20180621224010 62 313 1.0 6.0 0.00 0.72 0.72 92 1009.2
20180621223909 62 317 1.0 6.0 0.00 0.72 0.72 92 1009.2
20180621223810 62 328 1.0 6.0 0.00 0.72 0.72 92 1009.2
20180621223709 62 356 1.0 6.0 0.00 0.72 0.72 92 1009.2
20180621223609 62 19 1.0 6.0 0.00 0.72 0.72 92 1009.3
20180621223510 62 20 1.0 4.0 0.00 0.72 0.72 92 1009.3
20180621223409 62 16 1.0 4.0 0.00 0.72 0.72 92 1009.2
20180621223309 62 16 1.0 4.0 0.00 0.72 0.72 92 1009.2
20180621223210 62 16 1.0 4.0 0.00 0.72 0.72 92 1009.2
20180621223110 62 16 1.0 4.0 0.00 0.72 0.72 92 1009.2
20180621223010 62 24 1.0 4.0 0.00 0.72 0.72 92 1009.2
20180621222910 62 28 1.0 4.0 0.00 0.72 0.72 92 1009.1
20180621222809 62 30 1.0 4.0 0.00 0.72 0.72 92 1009.1
20180621222709 62 9 1.0 4.0 0.00 0.72 0.72 92 1009.2
20180621222610 62 306 1.0 4.0 0.00 0.72 0.72 92 1009.2
20180621222509 62 295 1.0 4.0 0.00 0.72 0.72 92 1009.1
20180621222409 62 293 1.0 4.0 0.00 0.72 0.72 92 1009.1
20180621222310 62 283 1.0 4.0 0.00 0.72 0.72 92 1009.1
20180621222209 61 271 1.0 4.0 0.00 0.72 0.72 92 1009.0
20180621222112 61 360 0.0 3.0 0.00 0.72 0.72 92 1008.8
20180621222109 61 247 1.0 4.0 0.00 0.72 0.72 92 1009.0
20180621222010 61 242 1.0 4.0 0.00 0.72 0.72 92 1009.0
20180621221909 61 242 1.0 4.0 0.00 0.72 0.72 92 1009.0
20180621221811 61 224 1.0 4.0 0.00 0.72 0.72 92 1009.0
20180621221709 61 212 1.0 3.0 0.00 0.72 0.72 92 1009.0
20180621221609 61 196 1.0 3.0 0.00 0.72 0.72 92 1009.0
20180621221510 61 192 1.0 3.0 0.00 0.72 0.72 92 1009.0
20180621221409 61 179 0.0 3.0 0.00 0.72 0.72 92 1009.0
20180621221309 61 139 1.0 4.0 0.00 0.72 0.72 92 1009.1
20180621221210 61 71 1.0 8.0 0.00 0.72 0.72 92 1009.1
20180621221110 61 63 1.0 8.0 0.00 0.72 0.72 92 1009.1
20180621221009 61 50 1.0 8.0 0.00 0.72 0.72 92 1009.1
20180621220910 61 45 1.0 8.0 0.00 0.72 0.72 92 1009.0
20180621220810 61 44 1.0 8.0 0.00 0.72 0.72 92 1009.0
20180621220709 61 39 1.0 8.0 0.00 0.72 0.72 91 1008.9
20180621220613 61 29 1.0 8.0 0.00 0.72 0.72 91 1008.9
20180621220509 61 40 1.0 8.0 0.00 0.72 0.72 91 1008.9
20180621220409 61 39 1.0 8.0 0.00 0.72 0.72 91 1009.0
20180621220310 61 35 1.0 8.0 0.00 0.72 0.72 92 1009.0
20180621220307 61 46 1.0 5.0 0.00 0.72 0.72 92 1008.8
20180621220209 61 228 0.0 4.0 0.00 0.72 0.72 92 1008.9
20180621220109 61 219 0.0 4.0 0.00 0.72 0.72 92 1008.9
20180621220010 61 190 0.0 4.0 0.00 0.72 0.72 92 1008.9
20180621215909 61 178 0.0 4.0 0.00 0.72 0.72 92 1009.0
20180621215810 61 153 0.0 4.0 0.00 0.72 0.72 92 1008.9
20180621215710 61 137 0.0 4.0 0.00 0.72 0.72 92 1008.9
20180621215609 61 131 1.0 4.0 0.00 0.72 0.72 92 1008.9
20180621215509 61 112 0.0 4.0 0.00 0.72 0.72 92 1008.9
20180621215410 61 113 1.0 4.0 0.00 0.72 0.72 92 1008.8
20180621215310 61 113 1.0 4.0 0.00 0.72 0.72 92 1008.8
20180621215209 61 110 1.0 4.0 0.00 0.72 0.72 92 1008.7
20180621215109 61 110 1.0 4.0 0.00 0.72 0.72 92 1008.7
20180621215010 61 110 1.0 4.0 0.00 0.72 0.72 91 1008.6
20180621214909 61 110 1.0 4.0 0.00 0.72 0.72 91 1008.6
20180621214810 61 110 1.0 4.0 0.00 0.72 0.72 91 1008.6
20180621214710 61 109 1.0 3.0 0.00 0.72 0.72 91 1008.6
20180621214609 61 108 0.0 3.0 0.00 0.72 0.72 92 1008.7
20180621214511 61 114 0.0 2.0 0.00 0.72 0.72 92 1008.5
20180621214410 61 105 0.0 3.0 0.00 0.72 0.72 92 1008.8
20180621214309 61 96 0.0 3.0 0.00 0.72 0.72 91 1008.8
20180621214210 61 25 0.0 3.0 0.00 0.72 0.72 91 1008.8
20180621214110 61 25 0.0 3.0 0.00 0.72 0.72 92 1008.7
20180621214009 61 261 0.0 3.0 0.00 0.72 0.72 92 1008.7
20180621213910 62 212 0.0 3.0 0.00 0.72 0.72 91 1008.7
20180621213810 62 187 0.0 4.0 0.00 0.72 0.72 91 1008.7
20180621213709 62 115 1.0 6.0 0.00 0.72 0.72 92 1008.6
20180621213610 62 107 1.0 6.0 0.00 0.72 0.72 92 1008.6
20180621213509 62 76 1.0 6.0 0.00 0.72 0.72 92 1008.6
20180621213409 62 59 1.0 6.0 0.00 0.72 0.72 92 1008.7
20180621213309 62 54 1.0 6.0 0.00 0.72 0.72 92 1008.8
20180621213210 62 50 1.0 6.0 0.00 0.72 0.72 92 1008.7
20180621213109 62 42 2.0 6.0 0.00 0.72 0.72 92 1008.7
20180621213009 62 30 2.0 6.0 0.00 0.72 0.72 92 1008.7
20180621212910 62 31 2.0 6.0 0.00 0.72 0.72 92 1008.7
20180621212809 62 26 2.0 6.0 0.00 0.72 0.72 92 1008.6
20180621212711 61 35 0.0 3.0 0.00 0.72 0.72 92 1008.4
20180621212609 62 23 1.0 4.0 0.00 0.72 0.72 92 1008.5
20180621212509 62 22 1.0 4.0 0.00 0.72 0.72 93 1008.5
20180621212409 62 24 1.0 4.0 0.00 0.72 0.72 93 1008.5
20180621212309 62 26 1.0 4.0 0.00 0.72 0.72 93 1008.5
20180621212210 62 25 1.0 4.0 0.00 0.72 0.72 93 1008.5
20180621212109 62 28 1.0 4.0 0.00 0.72 0.72 93 1008.5
20180621212010 62 52 0.0 4.0 0.00 0.72 0.72 94 1008.5
20180621211909 62 52 0.0 4.0 0.00 0.72 0.72 94 1008.5
20180621211809 62 43 1.0 4.0 0.00 0.72 0.72 94 1008.6
20180621211709 62 43 1.0 4.0 0.00 0.72 0.72 94 1008.6
20180621211609 62 43 1.0 4.0 0.00 0.72 0.72 94 1008.6
20180621211510 62 43 1.0 4.0 0.00 0.72 0.72 94 1008.6
20180621211410 62 45 1.0 4.0 0.00 0.72 0.72 94 1008.6
20180621211309 62 92 1.0 6.0 0.00 0.72 0.72 94 1008.6
20180621211210 62 96 1.0 6.0 0.00 0.72 0.72 94 1008.6
20180621211110 62 68 1.0 6.0 0.00 0.72 0.72 94 1008.7
20180621211009 62 36 1.0 6.0 0.00 0.72 0.72 94 1008.7
20180621210910 62 13 1.0 6.0 0.00 0.72 0.72 94 1008.7
20180621210809 62 310 2.0 9.0 0.00 0.72 0.72 94 1008.7
20180621210709 62 267 2.0 9.0 0.00 0.72 0.72 94 1008.7
20180621210610 62 227 2.0 9.0 0.00 0.72 0.72 95 1008.6
20180621210509 62 216 2.0 9.0 0.00 0.72 0.72 95 1008.6
20180621210409 62 212 2.0 9.0 0.00 0.72 0.72 95 1008.6
20180621210310 62 254 2.0 9.0 0.00 0.72 0.72 95 1008.6
20180621210210 62 223 2.0 9.0 0.00 0.72 0.72 94 1008.6
20180621210109 62 215 2.0 9.0 0.00 0.72 0.72 95 1008.6
20180621210010 62 212 2.0 9.0 0.00 0.72 0.72 95 1008.6
20180621205910 62 201 2.0 9.0 0.00 0.72 0.72 95 1008.6
20180621205809 62 175 1.0 6.0 0.00 0.72 0.72 95 1008.6
20180621205710 62 157 1.0 6.0 0.00 0.72 0.72 95 1008.7
20180621205609 62 172 1.0 6.0 0.00 0.72 0.72 95 1008.6
20180621205509 62 208 1.0 6.0 0.00 0.72 0.72 96 1008.7
20180621205409 62 219 1.0 6.0 0.00 0.72 0.72 96 1008.8
20180621205310 62 7 2.0 8.0 0.00 0.72 0.72 96 1008.8
20180621205210 62 4 2.0 8.0 0.00 0.72 0.72 96 1008.8
20180621205110 62 355 2.0 8.0 0.00 0.72 0.72 96 1008.8
20180621205009 63 345 2.0 8.0 0.00 0.72 0.72 96 1008.8
20180621204913 62 207 0.0 5.0 0.00 0.72 0.72 96 1008.5
20180621204910 63 350 2.0 8.0 0.00 0.72 0.72 96 1008.7
20180621204809 63 342 2.0 8.0 0.00 0.72 0.72 96 1008.7
20180621204709 63 344 2.0 8.0 0.00 0.72 0.72 96 1008.7
20180621204610 63 309 2.0 12.0 0.00 0.72 0.72 96 1008.7
20180621204510 63 331 2.0 12.0 0.00 0.72 0.72 96 1008.7
20180621204409 63 297 2.0 12.0 0.00 0.72 0.72 96 1008.7
20180621204310 63 280 2.0 12.0 0.00 0.72 0.72 97 1008.7
20180621204209 63 264 2.0 12.0 0.00 0.72 0.72 97 1008.7
20180621204109 63 255 2.0 12.0 0.00 0.72 0.72 97 1008.6
20180621204010 63 242 2.0 12.0 0.00 0.72 0.72 97 1008.6
20180621203909 63 262 2.0 12.0 0.00 0.72 0.72 97 1008.6
20180621203809 63 273 2.0 12.0 0.00 0.72 0.72 97 1008.6
20180621203710 63 305 2.0 12.0 0.01 0.72 0.72 97 1008.6
20180621203610 63 350 1.0 6.0 0.01 0.72 0.72 97 1008.6
20180621203509 63 3 1.0 6.0 0.01 0.72 0.72 97 1008.6
20180621203410 63 3 2.0 6.0 0.01 0.72 0.72 97 1008.6
20180621203309 63 15 1.0 6.0 0.01 0.72 0.72 97 1008.6
20180621203209 63 19 1.0 6.0 0.01 0.72 0.72 97 1008.6
20180621203110 62 84 1.0 4.0 0.01 0.72 0.72 97 1008.4
20180621203009 63 44 2.0 6.0 0.01 0.72 0.72 97 1008.7
20180621202909 63 52 1.0 6.0 0.01 0.72 0.72 97 1008.7
20180621202810 63 54 1.0 6.0 0.01 0.72 0.72 97 1008.7
20180621202709 63 65 2.0 6.0 0.01 0.72 0.72 97 1008.8
20180621202609 63 55 2.0 6.0 0.01 0.72 0.72 97 1008.8
20180621202510 63 66 2.0 6.0 0.01 0.72 0.72 97 1008.9
20180621202409 63 83 2.0 6.0 0.01 0.72 0.72 97 1008.9
20180621202309 63 73 2.0 6.0 0.01 0.72 0.72 97 1008.9
20180621202210 63 72 2.0 6.0 0.01 0.72 0.72 97 1008.9
20180621202109 63 53 2.0 8.0 0.01 0.72 0.72 97 1008.9
20180621202009 63 48 2.0 8.0 0.01 0.72 0.72 97 1008.9
20180621201910 63 48 2.0 8.0 0.01 0.72 0.72 97 1008.8
20180621201809 63 47 2.0 8.0 0.01 0.72 0.72 97 1008.8
20180621201709 63 53 2.0 9.0 0.01 0.72 0.72 97 1008.9
20180621201610 63 65 2.0 9.0 0.01 0.72 0.72 97 1008.8
20180621201509 63 80 2.0 9.0 0.01 0.72 0.72 97 1008.9
20180621201409 63 92 2.0 9.0 0.01 0.72 0.72 97 1008.9
20180621201310 62 136 1.0 6.0 0.01 0.72 0.72 97 1008.6
20180621201209 63 88 1.0 9.0 0.01 0.72 0.72 97 1008.9
20180621201109 63 94 1.0 9.0 0.02 0.72 0.72 97 1009.0
20180621201010 63 86 2.0 9.0 0.02 0.72 0.72 97 1009.0
20180621200910 63 81 2.0 9.0 0.02 0.72 0.72 97 1008.9
20180621200809 63 70 2.0 9.0 0.02 0.72 0.72 97 1008.9
20180621200710 63 53 2.0 6.0 0.02 0.72 0.72 97 1008.7
20180621200609 63 44 2.0 6.0 0.02 0.72 0.72 97 1008.7
20180621200509 63 40 2.0 6.0 0.03 0.72 0.72 97 1008.7
20180621200409 63 38 2.0 6.0 0.03 0.72 0.72 97 1008.7
20180621200309 63 37 2.0 8.0 0.03 0.72 0.72 97 1008.8
20180621200209 63 37 2.0 8.0 0.03 0.72 0.72 97 1008.9
20180621200109 63 29 2.0 8.0 0.03 0.72 0.72 97 1009.1
20180621200009 63 23 2.0 8.0 0.03 0.72 0.72 97 1009.1
20180621195910 63 21 2.0 8.0 0.04 0.72 0.72 97 1009.1
20180621195809 63 22 2.0 8.0 0.04 0.72 0.72 97 1009.0
20180621195709 63 25 2.0 8.0 0.04 0.72 0.72 97 1009.0
20180621195610 63 22 2.0 8.0 0.04 0.72 0.72 97 1009.0
20180621195509 63 24 2.0 8.0 0.05 0.72 0.72 97 1009.0
20180621195409 63 32 2.0 8.0 0.05 0.72 0.72 97 1009.0
20180621195310 63 30 2.0 8.0 0.05 0.72 0.72 97 1008.9
20180621195209 63 28 2.0 8.0 0.05 0.72 0.72 97 1008.9
20180621195109 63 24 2.0 10.0 0.05 0.72 0.72 97 1008.9
20180621195009 63 25 2.0 10.0 0.05 0.72 0.72 97 1008.9
20180621194909 63 23 3.0 12.0 0.05 0.72 0.72 97 1008.8
20180621194809 63 24 3.0 12.0 0.05 0.72 0.72 97 1008.8
20180621194710 63 24 3.0 12.0 0.05 0.72 0.72 97 1008.7
20180621194609 63 25 3.0 12.0 0.05 0.72 0.72 97 1008.7
20180621194510 63 24 3.0 12.0 0.05 0.72 0.72 97 1008.6
20180621194409 63 18 3.0 12.0 0.05 0.72 0.72 97 1008.6
20180621194309 63 7 3.0 14.0 0.05 0.72 0.72 97 1008.5
20180621194209 63 5 3.0 14.0 0.05 0.72 0.72 97 1008.5
20180621194109 63 8 3.0 14.0 0.05 0.72 0.72 97 1008.5
20180621194010 63 5 2.0 14.0 0.05 0.72 0.72 97 1008.5
20180621193909 63 358 2.0 14.0 0.06 0.72 0.72 97 1008.7
20180621193809 63 351 2.0 14.0 0.06 0.72 0.72 97 1008.7
20180621193710 63 352 2.0 14.0 0.05 0.71 0.71 97 1008.8
20180621193609 63 349 2.0 14.0 0.05 0.71 0.71 97 1008.8
20180621193509 63 341 2.0 14.0 0.05 0.71 0.71 97 1008.9
20180621193409 63 333 2.0 14.0 0.05 0.71 0.71 98 1008.9
20180621193309 63 347 2.0 8.0 0.05 0.71 0.71 98 1008.9
20180621193209 63 357 2.0 9.0 0.05 0.71 0.71 98 1008.9
20180621193110 63 3 2.0 9.0 0.05 0.71 0.71 97 1008.9
20180621193009 63 6 2.0 9.0 0.05 0.71 0.71 97 1008.9
20180621192910 63 8 2.0 9.0 0.05 0.71 0.71 98 1008.9
20180621192809 63 6 2.0 9.0 0.05 0.71 0.71 98 1008.9
20180621192709 63 5 2.0 9.0 0.05 0.71 0.71 98 1008.9
20180621192609 63 14 2.0 9.0 0.05 0.71 0.71 98 1008.9
20180621192509 63 21 2.0 9.0 0.05 0.71 0.71 98 1008.9
20180621192409 63 25 2.0 9.0 0.05 0.71 0.71 98 1008.9
20180621192309 63 28 2.0 9.0 0.05 0.71 0.71 98 1008.8
20180621192209 63 36 2.0 6.0 0.05 0.71 0.71 98 1008.8
20180621192109 63 41 2.0 6.0 0.05 0.71 0.71 98 1008.8
20180621192009 63 45 2.0 6.0 0.05 0.71 0.71 98 1008.8
20180621191910 63 48 1.0 6.0 0.05 0.71 0.71 98 1008.8
20180621191809 63 58 1.0 6.0 0.06 0.71 0.71 98 1008.8
20180621191709 63 67 1.0 6.0 0.06 0.71 0.71 98 1008.8
20180621191610 63 68 2.0 6.0 0.06 0.71 0.71 98 1008.8
20180621191509 63 58 2.0 6.0 0.06 0.71 0.71 98 1008.9
20180621191409 63 61 2.0 6.0 0.06 0.71 0.71 98 1008.9
20180621191309 63 68 2.0 6.0 0.06 0.71 0.71 98 1008.9
20180621191209 63 71 2.0 6.0 0.05 0.70 0.70 98 1008.9
20180621191109 63 85 2.0 6.0 0.05 0.70 0.70 98 1008.8
20180621191009 63 79 2.0 6.0 0.05 0.70 0.70 98 1008.9
20180621190909 63 81 2.0 6.0 0.06 0.70 0.70 97 1008.9
20180621190810 63 92 2.0 6.0 0.06 0.70 0.70 98 1008.9
20180621190709 63 103 2.0 6.0 0.06 0.70 0.70 97 1008.9
20180621190609 63 99 1.0 6.0 0.06 0.70 0.70 97 1008.9
20180621190510 63 110 1.0 4.0 0.05 0.69 0.69 97 1009.0
20180621190409 63 98 1.0 4.0 0.06 0.69 0.69 98 1009.0
20180621190309 63 90 1.0 4.0 0.06 0.69 0.69 98 1008.9
20180621190210 63 82 1.0 4.0 0.06 0.69 0.69 98 1008.9
20180621190109 64 54 2.0 6.0 0.07 0.69 0.69 98 1008.9
20180621190009 64 51 2.0 6.0 0.07 0.69 0.69 98 1008.9
20180621185910 63 136 1.0 4.0 0.07 0.68 0.68 98 1008.6
20180621185809 64 38 2.0 6.0 0.07 0.68 0.68 98 1008.8
20180621185709 64 32 2.0 6.0 0.07 0.68 0.68 98 1008.8
20180621185609 64 31 2.0 6.0 0.07 0.68 0.68 98 1008.8
20180621185509 64 28 2.0 6.0 0.07 0.67 0.67 98 1008.8
20180621185409 64 27 2.0 6.0 0.08 0.67 0.67 98 1008.8
20180621185310 64 28 2.0 6.0 0.08 0.67 0.67 98 1008.8
20180621185209 64 33 2.0 6.0 0.08 0.67 0.67 98 1008.7
20180621185109 64 42 2.0 6.0 0.09 0.67 0.67 98 1008.7
20180621185010 64 49 1.0 6.0 0.09 0.67 0.67 98 1008.5
20180621184909 64 61 1.0 6.0 0.09 0.67 0.67 98 1008.5
20180621184809 64 63 1.0 6.0 0.09 0.67 0.67 98 1008.5
20180621184710 64 60 1.0 6.0 0.09 0.67 0.67 98 1008.4
20180621184609 64 72 2.0 6.0 0.10 0.67 0.67 98 1008.4
20180621184510 64 78 1.0 6.0 0.10 0.67 0.67 98 1008.5
20180621184409 64 67 1.0 6.0 0.10 0.67 0.67 98 1008.5
20180621184309 64 58 1.0 6.0 0.10 0.67 0.67 98 1008.5
20180621184209 64 52 1.0 6.0 0.10 0.67 0.67 98 1008.5
20180621184109 63 123 0.0 3.0 0.10 0.67 0.67 98 1008.2
20180621184009 64 42 1.0 4.0 0.09 0.66 0.66 98 1008.5
20180621183910 64 34 1.0 4.0 0.09 0.66 0.66 98 1008.5
20180621183809 64 36 1.0 4.0 0.10 0.66 0.66 98 1008.5
20180621183709 64 45 1.0 4.0 0.10 0.66 0.66 98 1008.5
20180621183609 64 42 1.0 4.0 0.10 0.66 0.66 98 1008.5
20180621183509 64 42 1.0 4.0 0.10 0.66 0.66 98 1008.5
20180621183410 64 43 1.0 4.0 0.10 0.66 0.66 98 1008.5
20180621183309 64 43 1.0 4.0 0.10 0.66 0.66 98 1008.5
20180621183209 64 43 1.0 4.0 0.10 0.66 0.66 98 1008.5
20180621183109 64 40 1.0 6.0 0.10 0.66 0.66 98 1008.5
20180621183009 64 38 1.0 6.0 0.10 0.66 0.66 98 1008.5
20180621182909 64 38 1.0 6.0 0.10 0.66 0.66 98 1008.6
20180621182809 64 43 1.0 6.0 0.10 0.66 0.66 98 1008.7
20180621182709 64 52 1.0 6.0 0.10 0.66 0.66 98 1008.7
20180621182609 64 48 1.0 6.0 0.11 0.66 0.66 98 1008.7
20180621182509 64 45 1.0 6.0 0.11 0.66 0.66 98 1008.7
20180621182410 64 31 1.0 6.0 0.11 0.66 0.66 98 1008.7
20180621182310 63 38 2.0 4.0 0.11 0.66 0.66 98 1008.3
20180621182209 64 33 1.0 6.0 0.11 0.66 0.66 98 1008.6
20180621182110 64 221 1.0 8.0 0.11 0.66 0.66 98 1008.6
20180621182009 64 209 2.0 8.0 0.12 0.66 0.66 98 1008.6
20180621181909 64 208 1.0 8.0 0.11 0.65 0.65 98 1008.6
20180621181809 64 214 1.0 8.0 0.11 0.65 0.65 98 1008.6
20180621181709 64 228 1.0 8.0 0.11 0.65 0.65 98 1008.5
20180621181609 64 239 1.0 8.0 0.12 0.65 0.65 98 1008.5
20180621181510 64 237 1.0 8.0 0.12 0.65 0.65 98 1008.5
20180621181409 64 227 1.0 8.0 0.12 0.65 0.65 98 1008.5
20180621181309 64 236 1.0 8.0 0.13 0.65 0.65 98 1008.5
20180621181210 64 241 1.0 8.0 0.13 0.65 0.65 98 1008.5
20180621181109 64 251 1.0 6.0 0.13 0.65 0.65 98 1008.4
20180621181009 64 266 1.0 6.0 0.13 0.64 0.64 98 1008.4
20180621180909 64 296 1.0 6.0 0.14 0.64 0.64 98 1008.4
20180621180809 64 289 1.0 6.0 0.14 0.64 0.64 98 1008.3
20180621180709 64 333 1.0 6.0 0.14 0.64 0.64 98 1008.2
20180621180610 64 355 1.0 6.0 0.14 0.64 0.64 98 1008.3
20180621180512 63 298 0.0 5.0 0.14 0.63 0.63 98 1007.9
20180621180509 64 9 2.0 6.0 0.14 0.63 0.63 98 1008.2
20180621180409 64 10 2.0 6.0 0.14 0.63 0.63 98 1008.2
20180621180309 64 22 1.0 6.0 0.14 0.63 0.63 98 1008.1
20180621180209 64 22 2.0 6.0 0.14 0.62 0.62 98 1008.1
20180621180109 64 23 2.0 6.0 0.14 0.62 0.62 98 1008.0
20180621180010 64 23 2.0 6.0 0.14 0.62 0.62 98 1008.1
20180621175909 64 16 2.0 6.0 0.13 0.61 0.61 98 1008.0
20180621175809 64 16 2.0 6.0 0.14 0.61 0.61 98 1008.0
20180621175710 64 15 2.0 6.0 0.14 0.61 0.61 98 1008.0
20180621175609 64 12 2.0 6.0 0.13 0.60 0.60 98 1008.0
20180621175509 64 8 2.0 6.0 0.13 0.60 0.60 98 1007.9
20180621175409 64 7 2.0 6.0 0.12 0.59 0.59 98 1007.9
20180621175309 64 7 2.0 6.0 0.12 0.59 0.59 98 1007.9
20180621175209 64 14 2.0 6.0 0.13 0.59 0.59 98 1007.9
20180621175109 64 13 2.0 6.0 0.12 0.58 0.58 98 1008.0
20180621175009 64 14 2.0 6.0 0.12 0.58 0.58 98 1008.0
20180621174909 64 20 1.0 6.0 0.13 0.58 0.58 98 1008.1
20180621174810 64 25 1.0 6.0 0.13 0.58 0.58 98 1008.1
20180621174713 63 5 0.0 2.0 0.13 0.56 0.56 98 1007.8
20180621174709 64 27 1.0 3.0 0.12 0.57 0.57 98 1008.2
20180621174609 64 31 1.0 3.0 0.13 0.57 0.57 98 1008.3
20180621174509 64 43 1.0 4.0 0.13 0.57 0.57 98 1008.3
20180621174409 64 50 1.0 4.0 0.13 0.57 0.57 98 1008.4
20180621174309 64 56 1.0 4.0 0.14 0.57 0.57 98 1008.4
20180621174210 64 63 1.0 4.0 0.14 0.57 0.57 98 1008.4
20180621174109 64 63 1.0 4.0 0.14 0.57 0.57 98 1008.5
20180621174009 64 64 1.0 4.0 0.14 0.57 0.57 98 1008.5
20180621173909 64 69 1.0 4.0 0.14 0.56 0.56 98 1008.5
20180621173810 64 64 1.0 4.0 0.14 0.56 0.56 98 1008.6
20180621173709 64 47 1.0 4.0 0.14 0.56 0.56 97 1008.6
20180621173609 64 38 1.0 4.0 0.14 0.56 0.56 97 1008.5
20180621173509 64 30 1.0 4.0 0.15 0.56 0.56 97 1008.5
20180621173409 64 30 1.0 4.0 0.15 0.56 0.56 97 1008.6
20180621173309 64 30 1.0 4.0 0.15 0.56 0.56 97 1008.6
20180621173209 64 30 1.0 4.0 0.15 0.56 0.56 97 1008.6
20180621173109 64 25 1.0 4.0 0.15 0.56 0.56 97 1008.7
20180621173009 64 22 1.0 4.0 0.15 0.56 0.56 97 1008.7
20180621172909 64 14 1.0 4.0 0.15 0.56 0.56 97 1008.8
20180621172809 64 10 1.0 4.0 0.15 0.56 0.56 98 1008.8
20180621172709 64 1 0.0 4.0 0.15 0.55 0.55 97 1008.9
20180621172609 64 351 0.0 4.0 0.15 0.55 0.55 97 1008.9
20180621172509 64 349 0.0 4.0 0.15 0.55 0.55 97 1008.9
20180621172409 64 349 0.0 4.0 0.15 0.55 0.55 97 1008.9
20180621172309 64 348 0.0 4.0 0.15 0.55 0.55 97 1009.0
20180621172209 64 345 0.0 4.0 0.16 0.55 0.55 97 1009.0
20180621172109 64 336 1.0 4.0 0.16 0.55 0.55 97 1009.0
20180621172009 64 336 1.0 4.0 0.15 0.54 0.54 97 1009.0
20180621171909 64 336 1.0 4.0 0.15 0.54 0.54 97 1009.1
20180621171809 64 335 1.0 4.0 0.15 0.54 0.54 97 1009.1
20180621171710 64 335 1.0 4.0 0.15 0.54 0.54 97 1009.0
20180621171609 64 333 0.0 4.0 0.14 0.53 0.53 97 1009.0
20180621171509 64 330 0.0 4.0 0.15 0.53 0.53 97 1009.1
20180621171409 64 330 0.0 4.0 0.15 0.53 0.53 97 1009.1
20180621171309 64 352 0.0 4.0 0.14 0.52 0.52 97 1009.0
20180621171209 64 8 0.0 4.0 0.14 0.52 0.52 97 1009.1
20180621171109 64 58 0.0 3.0 0.13 0.51 0.51 97 1009.1
20180621171009 64 58 0.0 3.0 0.13 0.51 0.51 98 1009.1
20180621170909 64 57 0.0 4.0 0.12 0.50 0.50 98 1009.1
20180621170809 64 57 0.0 4.0 0.12 0.50 0.50 98 1009.1
20180621170709 64 56 1.0 4.0 0.12 0.50 0.50 98 1009.2
20180621170609 64 47 1.0 4.0 0.11 0.49 0.49 98 1009.1
20180621170509 64 38 1.0 4.0 0.11 0.49 0.49 98 1009.1
20180621170409 64 38 1.0 4.0 0.11 0.49 0.49 98 1009.1
20180621170309 64 29 1.0 4.0 0.12 0.49 0.49 98 1009.2
20180621170210 64 19 1.0 4.0 0.11 0.48 0.48 98 1009.1
20180621170109 64 7 1.0 4.0 0.11 0.48 0.48 98 1009.1
20180621170009 64 5 1.0 4.0 0.11 0.48 0.48 98 1009.1
20180621165910 64 349 1.0 4.0 0.11 0.48 0.48 98 1009.1
20180621165809 64 321 0.0 4.0 0.10 0.47 0.47 98 1009.0
20180621165709 64 308 0.0 4.0 0.10 0.47 0.47 98 1009.0
20180621165608 64 321 0.0 3.0 0.10 0.47 0.47 98 1009.0
20180621165509 64 321 1.0 3.0 0.10 0.47 0.47 98 1009.0
20180621165409 64 320 1.0 3.0 0.10 0.47 0.47 98 1009.0
20180621165309 64 320 1.0 3.0 0.10 0.46 0.46 98 1009.0
20180621165209 64 320 0.0 3.0 0.10 0.46 0.46 98 1009.0
20180621165109 64 321 0.0 2.0 0.10 0.46 0.46 98 1008.7
20180621165009 64 320 0.0 3.0 0.10 0.46 0.46 98 1009.0
20180621164909 64 320 0.0 3.0 0.09 0.45 0.45 97 1009.0
20180621164809 64 320 0.0 3.0 0.09 0.45 0.45 97 1009.0
20180621164709 64 320 0.0 3.0 0.08 0.44 0.44 97 1009.0
20180621164609 64 320 0.0 3.0 0.08 0.44 0.44 97 1009.0
20180621164509 64 319 0.0 2.0 0.08 0.44 0.44 97 1009.1
20180621164409 64 0 0.0 0.0 0.07 0.43 0.43 97 1009.1
20180621164309 64 0 0.0 0.0 0.07 0.43 0.43 97 1009.1
20180621164209 64 0 0.0 0.0 0.08 0.43 0.43 97 1009.1
20180621164109 64 0 0.0 0.0 0.08 0.43 0.43 97 1009.1
20180621164010 64 0 0.0 0.0 0.08 0.43 0.43 97 1009.1
20180621163909 64 0 0.0 0.0 0.07 0.42 0.42 97 1009.1
20180621163809 64 0 0.0 0.0 0.07 0.42 0.42 97 1009.1
20180621163709 64 0 0.0 0.0 0.07 0.42 0.42 97 1009.1
20180621163609 64 0 0.0 0.0 0.07 0.42 0.42 97 1009.1
20180621163509 64 0 0.0 0.0 0.06 0.41 0.41 97 1009.1
20180621163409 64 0 0.0 0.0 0.07 0.41 0.41 97 1009.1
20180621163311 64 286 0.0 0.0 0.07 0.41 0.41 97 1008.8
20180621163309 64 0 0.0 0.0 0.07 0.41 0.41 97 1009.1
20180621163209 64 0 0.0 0.0 0.07 0.41 0.41 97 1009.1
20180621163109 64 0 0.0 0.0 0.07 0.41 0.41 97 1009.1
20180621163010 64 334 0.0 2.0 0.07 0.41 0.41 97 1009.1
20180621162909 64 334 0.0 2.0 0.07 0.41 0.41 98 1009.1
20180621162809 64 334 0.0 2.0 0.06 0.40 0.40 98 1009.1
20180621162709 64 344 0.0 2.0 0.07 0.40 0.40 97 1009.1
20180621162609 64 354 0.0 3.0 0.07 0.40 0.40 97 1009.0
20180621162509 64 356 0.0 3.0 0.07 0.40 0.40 97 1009.0
20180621162409 64 359 0.0 3.0 0.07 0.40 0.40 97 1009.0
20180621162309 64 1 0.0 3.0 0.06 0.39 0.39 97 1009.0
20180621162209 64 1 0.0 3.0 0.06 0.39 0.39 98 1009.0
20180621162110 64 5 1.0 3.0 0.06 0.39 0.39 97 1009.0
20180621162009 64 13 1.0 3.0 0.07 0.39 0.39 97 1009.0
20180621161909 64 13 1.0 3.0 0.07 0.39 0.39 97 1009.0
20180621161809 64 15 1.0 4.0 0.07 0.39 0.39 97 1008.9
20180621161709 64 12 1.0 4.0 0.07 0.39 0.39 97 1008.9
20180621161609 64 11 1.0 4.0 0.07 0.39 0.39 97 1008.9
20180621161509 64 12 1.0 4.0 0.06 0.38 0.38 97 1008.9
20180621161409 64 8 1.0 4.0 0.06 0.38 0.38 97 1008.9
20180621161309 64 9 1.0 4.0 0.06 0.38 0.38 97 1008.9
20180621161209 64 9 1.0 4.0 0.06 0.38 0.38 97 1008.9
20180621161109 64 10 1.0 4.0 0.07 0.38 0.38 97 1008.9
20180621161009 64 7 1.0 4.0 0.07 0.38 0.38 97 1008.9
20180621160909 64 5 1.0 4.0 0.07 0.38 0.38 97 1008.9
20180621160809 64 2 1.0 4.0 0.07 0.38 0.38 97 1009.0
20180621160708 64 344 1.0 4.0 0.07 0.38 0.38 97 1008.9
20180621160609 64 340 1.0 4.0 0.07 0.38 0.38 97 1008.9
20180621160509 64 336 1.0 4.0 0.07 0.38 0.38 97 1009.0
20180621160409 64 333 1.0 4.0 0.07 0.37 0.37 97 1008.9
20180621160310 64 330 1.0 4.0 0.07 0.37 0.37 97 1008.9
20180621160209 64 330 1.0 4.0 0.07 0.37 0.37 97 1008.9
20180621160109 64 303 1.0 4.0 0.07 0.37 0.37 97 1008.9
20180621160008 64 281 1.0 4.0 0.07 0.37 0.37 97 1008.9
20180621155909 64 274 0.0 4.0 0.07 0.37 0.37 97 1008.9
20180621155809 64 286 1.0 4.0 0.08 0.37 0.37 97 1008.9
20180621155708 64 341 0.0 3.0 0.08 0.37 0.37 97 1008.9
20180621155609 64 352 0.0 3.0 0.08 0.37 0.37 97 1008.9
20180621155509 64 358 0.0 3.0 0.08 0.37 0.37 97 1008.9
20180621155408 64 5 1.0 3.0 0.08 0.36 0.36 97 1008.9
20180621155309 64 13 1.0 3.0 0.08 0.36 0.36 97 1008.9
20180621155209 64 15 1.0 3.0 0.08 0.36 0.36 97 1008.9
20180621155109 64 15 1.0 3.0 0.08 0.36 0.36 97 1008.9
20180621155009 64 15 1.0 3.0 0.08 0.36 0.36 97 1008.9
20180621154909 64 22 1.0 3.0 0.09 0.36 0.36 97 1008.9
20180621154809 64 32 1.0 4.0 0.09 0.36 0.36 97 1008.8
20180621154710 64 32 1.0 4.0 0.09 0.36 0.36 97 1008.8
20180621154609 64 32 1.0 4.0 0.09 0.36 0.36 97 1008.8
20180621154509 64 32 1.0 4.0 0.10 0.36 0.36 98 1008.8
20180621154410 64 33 1.0 4.0 0.10 0.36 0.36 98 1008.8
20180621154309 64 33 1.0 4.0 0.09 0.35 0.35 98 1008.8
20180621154209 64 33 1.0 4.0 0.10 0.35 0.35 97 1008.8
20180621154109 64 33 1.0 4.0 0.10 0.35 0.35 97 1008.8
20180621154010 64 32 1.0 4.0 0.10 0.35 0.35 97 1008.8
20180621153909 64 27 1.0 4.0 0.11 0.35 0.35 98 1008.7
20180621153809 64 26 1.0 4.0 0.12 0.35 0.35 98 1008.8
20180621153710 64 32 0.0 3.0 0.12 0.35 0.35 98 1008.4
20180621153609 64 21 0.0 4.0 0.12 0.35 0.35 98 1008.7
20180621153509 64 21 1.0 4.0 0.12 0.35 0.35 98 1008.7
20180621153409 64 21 1.0 4.0 0.12 0.34 0.34 98 1008.7
20180621153309 64 21 1.0 4.0 0.12 0.34 0.34 97 1008.7
20180621153209 64 19 1.0 4.0 0.12 0.34 0.34 98 1008.7
20180621153109 64 19 1.0 4.0 0.13 0.34 0.34 98 1008.6
20180621153009 64 19 0.0 4.0 0.13 0.34 0.34 98 1008.6
20180621152909 64 22 0.0 3.0 0.13 0.34 0.34 98 1008.7
20180621152809 64 21 0.0 4.0 0.14 0.34 0.34 98 1008.7
20180621152709 64 21 0.0 4.0 0.13 0.33 0.33 97 1008.7
20180621152609 64 21 1.0 4.0 0.14 0.33 0.33 98 1008.7
20180621152510 64 22 1.0 4.0 0.14 0.33 0.33 97 1008.6
20180621152413 64 23 1.0 4.0 0.14 0.33 0.33 97 1008.6
20180621152309 64 23 0.0 4.0 0.14 0.33 0.33 97 1008.7
20180621152209 64 24 0.0 4.0 0.15 0.33 0.33 98 1008.6
20180621152108 64 24 0.0 4.0 0.15 0.33 0.33 97 1008.6
20180621152009 64 24 0.0 4.0 0.14 0.32 0.32 97 1008.7
20180621151910 64 21 0.0 3.0 0.15 0.32 0.32 98 1008.3
20180621151810 64 27 0.0 3.0 0.15 0.32 0.32 98 1008.7
20180621151709 64 27 0.0 3.0 0.15 0.32 0.32 98 1008.6
20180621151609 64 31 0.0 3.0 0.16 0.32 0.32 98 1008.6
20180621151508 64 31 0.0 2.0 0.17 0.32 0.32 98 1008.7
20180621151409 64 31 0.0 3.0 0.17 0.32 0.32 98 1008.7
20180621151309 64 31 0.0 3.0 0.18 0.32 0.32 98 1008.7
20180621151209 64 31 0.0 3.0 0.18 0.31 0.31 98 1008.7
20180621151109 64 41 0.0 3.0 0.18 0.31 0.31 98 1008.7
20180621151009 64 41 0.0 3.0 0.18 0.31 0.31 98 1008.7
20180621150909 64 42 0.0 3.0 0.19 0.31 0.31 97 1008.7
20180621150809 64 50 1.0 3.0 0.20 0.31 0.31 97 1008.7
20180621150709 64 52 1.0 3.0 0.21 0.31 0.31 97 1008.7
20180621150610 64 52 1.0 3.0 0.21 0.31 0.31 97 1008.7
20180621150509 64 52 1.0 3.0 0.22 0.30 0.30 97 1008.7
20180621150409 64 55 1.0 3.0 0.22 0.30 0.30 97 1008.7
20180621150309 64 56 1.0 3.0 0.22 0.30 0.30 97 1008.7
20180621150209 64 52 1.0 3.0 0.22 0.30 0.30 97 1008.7
20180621150111 64 63 0.0 2.0 0.22 0.30 0.30 97 1008.4
20180621150108 64 46 0.0 3.0 0.22 0.30 0.30 97 1008.7
20180621150009 64 33 1.0 3.0 0.22 0.30 0.30 97 1008.7
20180621145909 64 31 1.0 3.0 0.22 0.29 0.29 97 1008.8
20180621145809 64 13 0.0 3.0 0.22 0.29 0.29 97 1008.8
20180621145709 64 6 0.0 3.0 0.22 0.29 0.29 97 1008.8
20180621145609 64 15 1.0 3.0 0.22 0.29 0.29 97 1008.8
20180621145509 64 16 1.0 3.0 0.23 0.29 0.29 97 1008.8
20180621145409 64 22 1.0 4.0 0.22 0.28 0.28 97 1008.8
20180621145309 64 19 1.0 4.0 0.22 0.28 0.28 97 1008.9
20180621145209 64 18 1.0 4.0 0.23 0.28 0.28 97 1008.9
20180621145109 64 19 1.0 4.0 0.23 0.28 0.28 97 1008.9
20180621145009 64 22 1.0 4.0 0.22 0.27 0.27 97 1008.9
20180621144908 64 21 1.0 4.0 0.22 0.27 0.27 97 1008.9
20180621144809 64 21 1.0 4.0 0.22 0.27 0.27 97 1008.9
20180621144709 64 21 1.0 4.0 0.23 0.27 0.27 97 1008.9
20180621144609 64 18 1.0 4.0 0.22 0.26 0.26 97 1008.9
20180621144508 64 16 1.0 4.0 0.22 0.26 0.26 97 1008.9
20180621144409 64 9 1.0 4.0 0.22 0.26 0.26 97 1008.9
20180621144309 64 11 0.0 4.0 0.21 0.25 0.25 97 1008.9
20180621144307 64 11 0.0 3.0 0.21 0.25 0.25 97 1008.5
20180621144208 64 11 0.0 4.0 0.22 0.25 0.25 97 1008.9
20180621144109 64 11 0.0 4.0 0.22 0.25 0.25 97 1008.9
20180621144008 64 11 0.0 4.0 0.21 0.24 0.24 97 1008.9
20180621143909 64 11 0.0 4.0 0.21 0.24 0.24 97 1009.0
20180621143809 64 11 0.0 4.0 0.20 0.23 0.23 97 1009.0
20180621143708 64 11 0.0 4.0 0.21 0.23 0.23 97 1008.9
20180621143609 64 11 0.0 4.0 0.21 0.23 0.23 97 1008.9
20180621143509 64 0 0.0 0.0 0.20 0.22 0.22 97 1008.9
20180621143408 64 0 0.0 0.0 0.20 0.22 0.22 97 1008.9
20180621143309 64 0 0.0 0.0 0.21 0.22 0.22 97 1008.9
20180621143209 64 0 0.0 0.0 0.20 0.21 0.21 97 1008.9
20180621143108 64 0 0.0 0.0 0.20 0.21 0.21 97 1008.9
20180621143009 64 0 0.0 0.0 0.20 0.21 0.21 97 1008.9
20180621142909 64 0 0.0 0.0 0.19 0.20 0.20 97 1009.0
20180621142809 64 0 0.0 0.0 0.19 0.20 0.20 97 1009.0
20180621142710 64 0 0.0 0.0 0.19 0.20 0.20 97 1009.0
20180621142609 64 0 0.0 0.0 0.18 0.19 0.19 97 1009.1
20180621142509 64 0 0.0 0.0 0.18 0.19 0.19 97 1009.1
20180621142409 64 0 0.0 0.0 0.18 0.19 0.19 97 1009.1
20180621142309 64 355 0.0 0.0 0.17 0.18 0.18 97 1008.8
20180621142209 64 0 0.0 0.0 0.17 0.18 0.18 97 1009.1
20180621142109 64 0 0.0 0.0 0.17 0.18 0.18 97 1009.1
20180621142009 64 0 0.0 0.0 0.17 0.18 0.18 96 1009.1
20180621141909 64 0 0.0 0.0 0.16 0.17 0.17 96 1009.1
20180621141809 64 0 0.0 0.0 0.16 0.17 0.17 96 1009.1
20180621141709 64 0 0.0 0.0 0.16 0.17 0.17 96 1009.1
20180621141609 64 0 0.0 0.0 0.15 0.16 0.16 96 1009.2
20180621141509 64 0 0.0 0.0 0.14 0.15 0.15 96 1009.2
20180621141408 64 0 0.0 0.0 0.13 0.14 0.14 96 1009.2
20180621141309 64 0 0.0 0.0 0.13 0.14 0.14 96 1009.3
20180621141209 64 0 0.0 0.0 0.12 0.13 0.13 96 1009.3
20180621141109 64 0 0.0 0.0 0.12 0.13 0.13 96 1009.3
20180621141009 64 0 0.0 0.0 0.12 0.13 0.13 96 1009.3
20180621140909 64 0 0.0 0.0 0.11 0.12 0.12 96 1009.4
20180621140809 64 0 0.0 0.0 0.10 0.11 0.11 96 1009.3
20180621140709 64 0 0.0 0.0 0.09 0.10 0.10 96 1009.4
20180621140608 64 0 0.0 0.0 0.08 0.09 0.09 96 1009.4
20180621140509 64 0 0.0 0.0 0.07 0.08 0.08 96 1009.3
20180621140409 64 0 0.0 0.0 0.07 0.08 0.08 96 1009.3
20180621140309 64 0 0.0 0.0 0.07 0.08 0.08 96 1009.3
20180621140209 64 0 0.0 0.0 0.07 0.08 0.08 96 1009.4
20180621140109 64 0 0.0 0.0 0.07 0.08 0.08 96 1009.4
20180621140008 64 0 0.0 0.0 0.06 0.07 0.07 96 1009.4
20180621135909 64 0 0.0 0.0 0.06 0.07 0.07 96 1009.4
20180621135809 64 0 0.0 0.0 0.06 0.07 0.07 96 1009.4
20180621135709 64 0 0.0 0.0 0.06 0.07 0.07 96 1009.4
20180621135608 64 0 0.0 0.0 0.05 0.06 0.06 96 1009.4
20180621135509 64 0 0.0 0.0 0.05 0.06 0.06 96 1009.4
20180621135409 64 0 0.0 0.0 0.05 0.06 0.06 96 1009.5
20180621135309 64 0 0.0 0.0 0.05 0.06 0.06 96 1009.5
20180621135209 64 0 0.0 0.0 0.04 0.05 0.05 96 1009.5
20180621135109 64 0 0.0 0.0 0.04 0.05 0.05 96 1009.5
20180621135008 64 0 0.0 0.0 0.04 0.05 0.05 96 1009.5
20180621134909 64 0 0.0 0.0 0.04 0.05 0.05 96 1009.5
20180621134809 64 0 0.0 0.0 0.03 0.04 0.04 96 1009.6
20180621134708 64 0 0.0 0.0 0.03 0.04 0.04 96 1009.6
20180621134609 64 0 0.0 0.0 0.03 0.04 0.04 96 1009.6
20180621134509 64 0 0.0 0.0 0.03 0.04 0.04 96 1009.6
20180621134409 64 0 0.0 0.0 0.03 0.04 0.04 96 1009.6
20180621134309 64 0 0.0 0.0 0.03 0.04 0.04 96 1009.6
20180621134209 64 0 0.0 0.0 0.02 0.03 0.03 96 1009.6
20180621134109 64 0 0.0 0.0 0.02 0.03 0.03 96 1009.6
20180621134009 64 0 0.0 0.0 0.02 0.03 0.03 96 1009.6
20180621133909 64 0 0.0 0.0 0.02 0.03 0.03 96 1009.6
20180621133809 64 0 0.0 0.0 0.01 0.02 0.02 96 1009.6
20180621133709 64 0 0.0 0.0 0.01 0.02 0.02 96 1009.6
20180621133609 64 0 0.0 0.0 0.01 0.02 0.02 96 1009.6
20180621133509 64 0 0.0 0.0 0.01 0.02 0.02 96 1009.6
20180621133408 64 0 0.0 0.0 0.01 0.02 0.02 96 1009.6
20180621133309 64 0 0.0 0.0 0.00 0.01 0.01 96 1009.6
20180621133209 64 0 0.0 0.0 0.00 0.01 0.01 96 1009.5
20180621133108 64 0 0.0 0.0 0.00 0.01 0.01 96 1009.5
20180621133009 64 0 0.0 0.0 0.00 0.01 0.01 96 1009.5
20180621132909 64 0 0.0 0.0 0.00 0.01 0.01 96 1009.5
20180621132907 64 355 0.0 0.0 0.00 0.01 0.01 96 1009.2
20180621132809 64 0 0.0 0.0 0.00 0.01 0.01 96 1009.5
20180621132709 64 0 0.0 0.0 0.00 0.01 0.01 96 1009.5
20180621132609 64 0 0.0 0.0 0.00 0.01 0.01 96 1009.5
20180621132508 64 0 0.0 0.0 0.00 0.01 0.01 96 1009.4
20180621132409 64 0 0.0 0.0 0.00 0.01 0.01 96 1009.4
20180621132309 64 0 0.0 0.0 0.00 0.01 0.01 96 1009.4
20180621132209 64 0 0.0 0.0 0.00 0.01 0.01 96 1009.4
20180621132109 64 0 0.0 0.0 0.00 0.01 0.01 96 1009.4
20180621132009 64 0 0.0 0.0 0.00 0.01 0.01 96 1009.4
20180621131908 64 0 0.0 0.0 0.00 0.01 0.01 96 1009.4
20180621131809 64 0 0.0 0.0 0.00 0.01 0.01 96 1009.4
20180621131709 64 0 0.0 0.0 0.00 0.01 0.01 96 1009.4
20180621131609 64 0 0.0 0.0 0.00 0.01 0.01 96 1009.3
20180621131508 64 0 0.0 0.0 0.00 0.01 0.01 96 1009.3
20180621131409 64 0 0.0 0.0 0.00 0.01 0.01 96 1009.3
20180621131308 64 0 0.0 0.0 0.00 0.01 0.01 96 1009.3
20180621131209 64 0 0.0 0.0 0.00 0.01 0.01 96 1009.3
20180621131109 64 0 0.0 0.0 0.00 0.01 0.01 96 1009.2
20180621131011 64 0 0.0 0.0 0.00 0.01 0.01 96 1009.2
20180621130909 64 0 0.0 0.0 0.00 0.01 0.01 96 1009.2
20180621130809 64 0 0.0 0.0 0.00 0.01 0.01 96 1009.3
20180621130708 64 0 0.0 0.0 0.00 0.01 0.01 96 1009.3
20180621130609 64 0 0.0 0.0 0.00 0.01 0.01 96 1009.2
20180621130509 64 0 0.0 0.0 0.00 0.01 0.01 96 1009.2
20180621130409 64 0 0.0 0.0 0.00 0.01 0.01 96 1009.2
20180621130309 64 0 0.0 0.0 0.00 0.01 0.01 96 1009.2
20180621130209 64 0 0.0 0.0 0.00 0.01 0.01 96 1009.2
20180621130108 64 0 0.0 0.0 0.00 0.01 0.01 96 1009.2
20180621130009 64 0 0.0 0.0 0.00 0.01 0.01 96 1009.2
20180621125909 64 0 0.0 0.0 0.00 0.01 0.01 96 1009.2
20180621125812 64 0 0.0 0.0 0.00 0.01 0.01 96 1009.2
20180621125709 64 0 0.0 0.0 0.00 0.01 0.01 96 1009.2
20180621125609 64 0 0.0 0.0 0.00 0.01 0.01 96 1009.2
20180621125508 64 0 0.0 0.0 0.00 0.01 0.01 96 1009.2
20180621125409 64 0 0.0 0.0 0.00 0.01 0.01 96 1009.2
20180621125309 64 0 0.0 0.0 0.00 0.01 0.01 96 1009.2
20180621125208 64 0 0.0 0.0 0.00 0.01 0.01 96 1009.3
20180621125109 64 0 0.0 0.0 0.00 0.01 0.01 96 1009.2
20180621125009 64 0 0.0 0.0 0.00 0.01 0.01 96 1009.2
20180621124908 64 0 0.0 0.0 0.00 0.01 0.01 96 1009.2
20180621124809 64 0 0.0 0.0 0.00 0.01 0.01 96 1009.3
20180621124709 64 0 0.0 0.0 0.00 0.01 0.01 96 1009.2
20180621124608 64 0 0.0 0.0 0.00 0.01 0.01 96 1009.2
20180621124509 64 0 0.0 0.0 0.00 0.01 0.01 96 1009.2
20180621124409 64 0 0.0 0.0 0.00 0.01 0.01 96 1009.2
20180621124309 64 0 0.0 0.0 0.00 0.01 0.01 96 1009.3
20180621124209 64 0 0.0 0.0 0.00 0.01 0.01 96 1009.3
20180621124109 64 0 0.0 0.0 0.00 0.01 0.01 96 1009.3
20180621124009 64 0 0.0 0.0 0.00 0.01 0.01 96 1009.3
20180621123908 63 0 0.0 0.0 0.00 0.01 0.01 96 1009.3
20180621123809 63 0 0.0 0.0 0.00 0.01 0.01 96 1009.3
20180621123709 63 0 0.0 0.0 0.00 0.01 0.01 96 1009.3
20180621123608 63 0 0.0 0.0 0.00 0.01 0.01 96 1009.3
20180621123509 63 0 0.0 0.0 0.00 0.01 0.01 96 1009.3
20180621123409 63 0 0.0 0.0 0.00 0.01 0.01 96 1009.3
20180621123309 63 350 0.0 0.0 0.00 0.01 0.01 96 1008.9
20180621123209 63 0 0.0 0.0 0.00 0.01 0.01 96 1009.3
20180621123108 63 0 0.0 0.0 0.00 0.01 0.01 96 1009.3
20180621123009 63 0 0.0 0.0 0.00 0.01 0.01 96 1009.3
20180621122909 63 0 0.0 0.0 0.00 0.01 0.01 96 1009.3
20180621122809 63 0 0.0 0.0 0.00 0.01 0.01 96 1009.3
20180621122708 63 0 0.0 0.0 0.00 0.01 0.01 96 1009.3
20180621122608 63 0 0.0 0.0 0.00 0.01 0.01 96 1009.3
20180621122509 63 0 0.0 0.0 0.00 0.01 0.01 96 1009.3
20180621122409 63 0 0.0 0.0 0.00 0.01 0.01 96 1009.3
20180621122309 63 0 0.0 0.0 0.00 0.01 0.01 96 1009.3
20180621122209 63 0 0.0 0.0 0.00 0.01 0.01 96 1009.3
20180621122109 63 0 0.0 0.0 0.00 0.01 0.01 96 1009.3
20180621122008 63 0 0.0 0.0 0.00 0.01 0.01 96 1009.3
20180621121909 63 0 0.0 0.0 0.00 0.01 0.01 96 1009.3
20180621121809 63 0 0.0 0.0 0.00 0.01 0.01 96 1009.3
20180621121708 63 0 0.0 0.0 0.00 0.01 0.01 96 1009.3
20180621121609 63 0 0.0 0.0 0.00 0.01 0.01 96 1009.3
20180621121509 63 0 0.0 0.0 0.00 0.01 0.01 96 1009.3
20180621121408 63 0 0.0 0.0 0.00 0.01 0.01 96 1009.3
20180621121309 63 0 0.0 0.0 0.00 0.01 0.01 96 1009.3
20180621121209 63 0 0.0 0.0 0.00 0.01 0.01 96 1009.2
20180621121109 63 0 0.0 0.0 0.00 0.01 0.01 96 1009.2
20180621121009 63 0 0.0 0.0 0.00 0.01 0.01 96 1009.1
20180621120909 63 0 0.0 0.0 0.01 0.01 0.01 96 1009.2
20180621120809 63 0 0.0 0.0 0.01 0.01 0.01 96 1009.2
20180621120709 63 0 0.0 0.0 0.01 0.01 0.01 96 1009.2
20180621120608 63 0 0.0 0.0 0.01 0.01 0.01 96 1009.3
20180621120509 63 0 0.0 0.0 0.01 0.01 0.01 96 1009.3
20180621120409 63 0 0.0 0.0 0.01 0.01 0.01 96 1009.3
20180621120309 63 0 0.0 0.0 0.01 0.01 0.01 96 1009.2
20180621120209 63 0 0.0 0.0 0.01 0.01 0.01 95 1009.2
20180621120109 63 0 0.0 0.0 0.01 0.01 0.01 95 1009.3
20180621120009 63 0 0.0 0.0 0.01 0.01 0.01 95 1009.3
20180621115908 63 0 0.0 0.0 0.01 0.01 0.01 95 1009.3
20180621115809 63 0 0.0 0.0 0.01 0.01 0.01 95 1009.3
20180621115710 62 355 0.0 0.0 0.01 0.01 0.01 95 1008.9
20180621115609 63 0 0.0 0.0 0.01 0.01 0.01 95 1009.3
20180621115509 63 0 0.0 0.0 0.01 0.01 0.01 95 1009.3
20180621115408 63 0 0.0 0.0 0.01 0.01 0.01 95 1009.3
20180621115308 63 0 0.0 0.0 0.01 0.01 0.01 95 1009.3
20180621115209 63 0 0.0 0.0 0.01 0.01 0.01 95 1009.3
20180621115108 63 0 0.0 0.0 0.01 0.01 0.01 95 1009.3
20180621115009 63 0 0.0 0.0 0.01 0.01 0.01 95 1009.3
20180621114909 63 0 0.0 0.0 0.01 0.01 0.01 95 1009.3
20180621114809 63 0 0.0 0.0 0.01 0.01 0.01 95 1009.3
20180621114709 63 0 0.0 0.0 0.01 0.01 0.01 95 1009.3
20180621114608 63 0 0.0 0.0 0.01 0.01 0.01 95 1009.3
20180621114509 63 0 0.0 0.0 0.01 0.01 0.01 95 1009.3
20180621114409 63 0 0.0 0.0 0.01 0.01 0.01 95 1009.3
20180621114309 63 0 0.0 0.0 0.01 0.01 0.01 95 1009.3
20180621114209 63 0 0.0 0.0 0.01 0.01 0.01 95 1009.3
20180621114109 63 0 0.0 0.0 0.01 0.01 0.01 95 1009.3
20180621114009 63 0 0.0 0.0 0.01 0.01 0.01 95 1009.3
20180621113911 62 60 0.0 0.0 0.01 0.01 0.01 95 1009.0
20180621113908 63 0 0.0 0.0 0.01 0.01 0.01 95 1009.3
20180621113809 63 0 0.0 0.0 0.01 0.01 0.01 95 1009.3
20180621113708 63 0 0.0 0.0 0.01 0.01 0.01 95 1009.4
20180621113609 63 0 0.0 0.0 0.01 0.01 0.01 95 1009.4
20180621113509 63 0 0.0 0.0 0.01 0.01 0.01 95 1009.4
20180621113408 63 0 0.0 0.0 0.01 0.01 0.01 95 1009.4
20180621113309 63 0 0.0 0.0 0.01 0.01 0.01 95 1009.4
20180621113209 63 0 0.0 0.0 0.01 0.01 0.01 95 1009.4
20180621113108 63 0 0.0 0.0 0.01 0.01 0.01 95 1009.4
20180621113009 63 0 0.0 0.0 0.01 0.01 0.01 95 1009.4
20180621112909 63 0 0.0 0.0 0.01 0.01 0.01 95 1009.4
20180621112808 63 0 0.0 0.0 0.01 0.01 0.01 95 1009.4
20180621112709 63 0 0.0 0.0 0.01 0.01 0.01 95 1009.4
20180621112609 63 0 0.0 0.0 0.01 0.01 0.01 95 1009.5
20180621112508 63 0 0.0 0.0 0.01 0.01 0.01 95 1009.5
20180621112409 63 0 0.0 0.0 0.01 0.01 0.01 95 1009.5
20180621112309 63 0 0.0 0.0 0.01 0.01 0.01 95 1009.4
20180621112209 63 0 0.0 0.0 0.01 0.01 0.01 95 1009.4
20180621112109 63 0 0.0 0.0 0.01 0.01 0.01 95 1009.4
20180621112009 63 0 0.0 0.0 0.01 0.01 0.01 95 1009.4
20180621111908 63 0 0.0 0.0 0.01 0.01 0.01 95 1009.4
20180621111808 63 0 0.0 0.0 0.01 0.01 0.01 95 1009.4
20180621111709 63 0 0.0 0.0 0.01 0.01 0.01 95 1009.4
20180621111609 63 0 0.0 0.0 0.01 0.01 0.01 95 1009.4
20180621111508 63 0 0.0 0.0 0.01 0.01 0.01 94 1009.4
20180621111409 63 0 0.0 0.0 0.01 0.01 0.01 94 1009.4
20180621111308 63 0 0.0 0.0 0.01 0.01 0.01 94 1009.4
20180621111208 63 0 0.0 0.0 0.01 0.01 0.01 94 1009.4
20180621111109 63 0 0.0 0.0 0.01 0.01 0.01 94 1009.5
20180621111009 63 0 0.0 0.0 0.00 0.00 0.00 94 1009.5
20180621110908 63 0 0.0 0.0 0.00 0.00 0.00 94 1009.4
20180621110809 63 0 0.0 0.0 0.00 0.00 0.00 94 1009.4
20180621110708 63 0 0.0 0.0 0.00 0.00 0.00 94 1009.4
20180621110609 63 0 0.0 0.0 0.00 0.00 0.00 94 1009.4
20180621110509 63 0 0.0 0.0 0.00 0.00 0.00 94 1009.4
20180621110408 63 0 0.0 0.0 0.00 0.00 0.00 94 1009.4
20180621110309 63 0 0.0 0.0 0.00 0.00 0.00 94 1009.4
20180621110209 63 0 0.0 0.0 0.00 0.00 0.00 94 1009.3
20180621110110 62 203 0.0 0.0 0.00 0.00 0.00 94 1009.0
20180621110108 63 0 0.0 0.0 0.00 0.00 0.00 94 1009.3
20180621110009 63 0 0.0 0.0 0.00 0.00 0.00 94 1009.3
20180621105908 63 0 0.0 0.0 0.00 0.00 0.00 94 1009.3
20180621105808 63 0 0.0 0.0 0.00 0.00 0.00 95 1009.3
20180621105709 63 0 0.0 0.0 0.00 0.00 0.00 95 1009.3
20180621105609 63 0 0.0 0.0 0.00 0.00 0.00 95 1009.3
20180621105508 63 0 0.0 0.0 0.00 0.00 0.00 95 1009.3
20180621105409 63 0 0.0 0.0 0.00 0.00 0.00 95 1009.4
20180621105309 63 0 0.0 0.0 0.00 0.00 0.00 95 1009.4
20180621105208 63 0 0.0 0.0 0.00 0.00 0.00 94 1009.3
20180621105108 63 0 0.0 0.0 0.00 0.00 0.00 94 1009.3
20180621105009 63 0 0.0 0.0 0.00 0.00 0.00 94 1009.3
20180621104909 63 0 0.0 0.0 0.00 0.00 0.00 94 1009.3
20180621104809 63 0 0.0 0.0 0.00 0.00 0.00 94 1009.3
20180621104709 63 0 0.0 0.0 0.00 0.00 0.00 94 1009.3
20180621104608 63 0 0.0 0.0 0.00 0.00 0.00 94 1009.3
20180621104509 63 0 0.0 0.0 0.00 0.00 0.00 94 1009.2
20180621104409 63 0 0.0 0.0 0.00 0.01 0.00 94 1009.2
20180621104308 63 0 0.0 0.0 0.00 0.01 0.00 94 1009.2
20180621104209 63 0 0.0 0.0 0.00 0.01 0.00 94 1009.2
20180621104109 63 0 0.0 0.0 0.00 0.01 0.00 94 1009.3
20180621104008 63 0 0.0 0.0 0.00 0.01 0.00 94 1009.3
20180621103909 63 0 0.0 0.0 0.00 0.01 0.00 94 1009.3
20180621103809 63 0 0.0 0.0 0.00 0.01 0.00 94 1009.3
20180621103708 63 0 0.0 0.0 0.00 0.01 0.00 95 1009.3
20180621103609 63 0 0.0 0.0 0.00 0.01 0.00 95 1009.3
20180621103509 63 0 0.0 0.0 0.00 0.01 0.00 95 1009.4
20180621103408 63 0 0.0 0.0 0.00 0.01 0.00 95 1009.3
20180621103309 63 0 0.0 0.0 0.00 0.01 0.00 95 1009.3
20180621103208 63 0 0.0 0.0 0.00 0.01 0.00 95 1009.3
20180621103108 63 0 0.0 0.0 0.00 0.01 0.00 95 1009.3
20180621103009 63 0 0.0 0.0 0.00 0.01 0.00 94 1009.3
20180621102909 63 0 0.0 0.0 0.00 0.01 0.00 95 1009.2
20180621102809 63 0 0.0 0.0 0.00 0.01 0.00 95 1009.3
20180621102708 63 0 0.0 0.0 0.00 0.01 0.00 95 1009.3
20180621102609 63 0 0.0 0.0 0.00 0.01 0.00 95 1009.3
20180621102508 63 0 0.0 0.0 0.00 0.01 0.00 95 1009.3
20180621102408 63 0 0.0 0.0 0.00 0.01 0.00 95 1009.3
20180621102309 63 0 0.0 0.0 0.00 0.01 0.00 95 1009.2
20180621102209 63 0 0.0 0.0 0.00 0.01 0.00 95 1009.3
20180621102108 63 0 0.0 0.0 0.00 0.01 0.00 95 1009.3
20180621102009 63 0 0.0 0.0 0.00 0.01 0.00 95 1009.3
20180621101908 63 0 0.0 0.0 0.00 0.01 0.00 95 1009.3
20180621101808 63 0 0.0 0.0 0.00 0.01 0.00 95 1009.3
20180621101709 63 0 0.0 0.0 0.00 0.01 0.00 95 1009.3
20180621101609 63 0 0.0 0.0 0.00 0.01 0.00 95 1009.3
20180621101508 63 0 0.0 0.0 0.00 0.01 0.00 95 1009.3
20180621101409 63 0 0.0 0.0 0.00 0.01 0.00 95 1009.2
20180621101308 63 0 0.0 0.0 0.00 0.01 0.00 95 1009.2
20180621101208 63 0 0.0 0.0 0.00 0.01 0.00 95 1009.2
20180621101109 63 0 0.0 0.0 0.00 0.01 0.00 95 1009.3
20180621101009 63 0 0.0 0.0 0.00 0.01 0.00 95 1009.2
20180621100908 63 0 0.0 0.0 0.00 0.01 0.00 95 1009.3
20180621100809 63 0 0.0 0.0 0.00 0.01 0.00 95 1009.3
20180621100708 63 0 0.0 0.0 0.00 0.01 0.00 95 1009.3
20180621100608 63 0 0.0 0.0 0.00 0.01 0.00 95 1009.3
20180621100508 63 0 0.0 0.0 0.00 0.01 0.00 95 1009.3
20180621100409 63 0 0.0 0.0 0.00 0.01 0.00 95 1009.3
20180621100308 63 0 0.0 0.0 0.00 0.01 0.00 95 1009.2
20180621100209 63 0 0.0 0.0 0.00 0.01 0.00 95 1009.2
20180621100109 63 0 0.0 0.0 0.00 0.01 0.00 95 1009.2
20180621100008 63 0 0.0 0.0 0.00 0.01 0.00 95 1009.2
20180621095909 63 0 0.0 0.0 0.00 0.01 0.00 95 1009.1
20180621095808 63 0 0.0 0.0 0.00 0.01 0.00 95 1009.1
20180621095708 63 0 0.0 0.0 0.00 0.01 0.00 95 1009.1
20180621095609 63 0 0.0 0.0 0.00 0.01 0.00 95 1009.1
20180621095508 63 0 0.0 0.0 0.00 0.01 0.00 95 1009.0
20180621095408 63 0 0.0 0.0 0.00 0.01 0.00 95 1009.1
20180621095309 63 0 0.0 0.0 0.00 0.01 0.00 95 1009.1
20180621095210 63 0 0.0 0.0 0.00 0.01 0.00 95 1009.1
20180621095109 63 0 0.0 0.0 0.00 0.01 0.00 95 1009.2
20180621095008 63 0 0.0 0.0 0.00 0.01 0.00 95 1009.2
20180621094911 63 202 0.0 0.0 0.00 0.01 0.00 95 1008.9
20180621094908 63 0 0.0 0.0 0.00 0.01 0.00 95 1009.2
20180621094809 63 0 0.0 0.0 0.00 0.01 0.00 95 1009.2
20180621094709 63 0 0.0 0.0 0.00 0.01 0.00 95 1009.2
20180621094608 63 0 0.0 0.0 0.00 0.01 0.00 95 1009.1
20180621094509 63 0 0.0 0.0 0.00 0.01 0.00 95 1009.1
20180621094409 63 0 0.0 0.0 0.00 0.01 0.00 95 1009.1
20180621094308 63 0 0.0 0.0 0.00 0.01 0.00 95 1009.1
20180621094208 63 0 0.0 0.0 0.00 0.01 0.00 94 1009.1
20180621094109 63 0 0.0 0.0 0.00 0.01 0.00 95 1009.2
20180621094010 63 0 0.0 0.0 0.00 0.01 0.00 95 1009.2
20180621093909 63 0 0.0 0.0 0.00 0.01 0.00 95 1009.3
20180621093808 63 0 0.0 0.0 0.00 0.01 0.00 95 1009.3
20180621093709 63 0 0.0 0.0 0.00 0.01 0.00 95 1009.4
20180621093609 63 0 0.0 0.0 0.00 0.01 0.00 95 1009.4
20180621093508 63 0 0.0 0.0 0.00 0.01 0.00 95 1009.3
20180621093408 63 0 0.0 0.0 0.00 0.01 0.00 95 1009.3
20180621093309 63 0 0.0 0.0 0.00 0.01 0.00 95 1009.3
20180621093208 63 0 0.0 0.0 0.00 0.01 0.00 95 1009.3
20180621093109 63 0 0.0 0.0 0.00 0.01 0.00 94 1009.3
20180621093009 63 0 0.0 0.0 0.00 0.01 0.00 94 1009.3
20180621092908 63 202 0.0 0.0 0.00 0.01 0.00 94 1008.9
20180621092809 63 0 0.0 0.0 0.00 0.01 0.00 94 1009.2
20180621092709 63 0 0.0 0.0 0.00 0.01 0.00 94 1009.3
20180621092608 63 0 0.0 0.0 0.00 0.01 0.00 94 1009.3
20180621092508 63 0 0.0 0.0 0.00 0.01 0.00 94 1009.3
20180621092409 63 0 0.0 0.0 0.00 0.01 0.00 94 1009.3
20180621092308 63 0 0.0 0.0 0.00 0.01 0.00 94 1009.4
20180621092209 63 0 0.0 0.0 0.00 0.01 0.00 94 1009.4
20180621092109 63 0 0.0 0.0 0.00 0.01 0.00 94 1009.4
20180621092009 63 0 0.0 0.0 0.00 0.01 0.00 94 1009.4
20180621091909 63 0 0.0 0.0 0.00 0.01 0.00 94 1009.4
20180621091809 63 0 0.0 0.0 0.00 0.01 0.00 94 1009.4
20180621091709 63 0 0.0 0.0 0.00 0.01 0.00 94 1009.4
20180621091608 63 0 0.0 0.0 0.00 0.01 0.00 94 1009.4
20180621091510 63 0 0.0 0.0 0.00 0.01 0.00 94 1009.4
20180621091409 63 0 0.0 0.0 0.00 0.01 0.00 94 1009.4
20180621091309 63 0 0.0 0.0 0.00 0.01 0.00 94 1009.4
20180621091208 63 0 0.0 0.0 0.00 0.01 0.00 94 1009.4
20180621091109 63 0 0.0 0.0 0.00 0.01 0.00 94 1009.4
20180621091107 63 202 0.0 0.0 0.00 0.01 0.00 94 1009.0
20180621091009 63 0 0.0 0.0 0.00 0.01 0.00 94 1009.4
20180621090909 63 0 0.0 0.0 0.00 0.01 0.00 94 1009.4
20180621090809 63 0 0.0 0.0 0.00 0.01 0.00 94 1009.4
20180621090708 63 0 0.0 0.0 0.00 0.01 0.00 94 1009.4
20180621090608 63 0 0.0 0.0 0.00 0.01 0.00 94 1009.4
20180621090509 63 0 0.0 0.0 0.00 0.01 0.00 94 1009.4
20180621090408 63 0 0.0 0.0 0.00 0.01 0.00 94 1009.4
20180621090309 63 0 0.0 0.0 0.00 0.01 0.00 94 1009.5
20180621090209 63 0 0.0 0.0 0.00 0.01 0.00 94 1009.5
20180621090108 63 0 0.0 0.0 0.00 0.01 0.00 94 1009.5
20180621090009 63 0 0.0 0.0 0.00 0.01 0.00 94 1009.5
20180621085909 63 0 0.0 0.0 0.00 0.01 0.00 94 1009.5
20180621085809 63 0 0.0 0.0 0.00 0.01 0.00 94 1009.5
20180621085709 63 0 0.0 0.0 0.00 0.01 0.00 94 1009.4
20180621085609 63 0 0.0 0.0 0.00 0.01 0.00 94 1009.4
20180621085509 63 0 0.0 0.0 0.00 0.01 0.00 94 1009.4
20180621085409 63 0 0.0 0.0 0.00 0.01 0.00 94 1009.5
20180621085308 63 0 0.0 0.0 0.00 0.01 0.00 94 1009.5
20180621085210 63 0 0.0 0.0 0.00 0.01 0.00 94 1009.5
20180621085109 63 0 0.0 0.0 0.00 0.01 0.00 94 1009.5
20180621085009 63 0 0.0 0.0 0.00 0.01 0.00 94 1009.5
20180621084908 63 0 0.0 0.0 0.00 0.01 0.00 94 1009.5
20180621084808 63 0 0.0 0.0 0.00 0.01 0.00 94 1009.5
20180621084709 63 0 0.0 0.0 0.00 0.01 0.00 94 1009.5
20180621084608 63 0 0.0 0.0 0.00 0.01 0.00 94 1009.5
20180621084509 63 0 0.0 0.0 0.00 0.01 0.00 94 1009.5
20180621084409 63 0 0.0 0.0 0.00 0.01 0.00 94 1009.5
20180621084308 63 0 0.0 0.0 0.00 0.01 0.00 94 1009.5
20180621084208 63 0 0.0 0.0 0.00 0.01 0.00 93 1009.5
20180621084109 63 0 0.0 0.0 0.00 0.01 0.00 93 1009.5
20180621084008 63 0 0.0 0.0 0.00 0.01 0.00 93 1009.5
20180621083909 63 0 0.0 0.0 0.00 0.01 0.00 93 1009.5
20180621083808 63 0 0.0 0.0 0.00 0.01 0.00 93 1009.5
20180621083708 63 0 0.0 0.0 0.00 0.01 0.00 93 1009.5
20180621083609 63 0 0.0 0.0 0.00 0.01 0.00 93 1009.5
20180621083509 63 0 0.0 0.0 0.00 0.01 0.00 93 1009.5
20180621083507 63 202 0.0 0.0 0.00 0.01 0.00 93 1009.1
20180621083408 63 0 0.0 0.0 0.00 0.01 0.00 93 1009.4
20180621083309 63 0 0.0 0.0 0.00 0.01 0.00 93 1009.5
20180621083208 63 0 0.0 0.0 0.00 0.01 0.00 93 1009.4
20180621083109 63 203 0.0 3.0 0.00 0.01 0.00 93 1009.4
20180621083009 63 202 0.0 3.0 0.00 0.01 0.00 93 1009.4
20180621082909 63 202 0.0 3.0 0.00 0.01 0.00 93 1009.4
20180621082808 63 202 0.0 3.0 0.00 0.01 0.00 93 1009.4
20180621082709 63 202 0.0 3.0 0.00 0.01 0.00 93 1009.4
20180621082609 63 202 0.0 3.0 0.00 0.01 0.00 93 1009.3
20180621082509 63 202 0.0 3.0 0.00 0.01 0.00 93 1009.4
20180621082409 63 202 0.0 3.0 0.00 0.01 0.00 93 1009.4
20180621082308 63 202 0.0 3.0 0.00 0.01 0.00 93 1009.4
20180621082209 63 202 0.0 3.0 0.00 0.01 0.00 93 1009.4
20180621082108 63 203 0.0 3.0 0.00 0.01 0.00 93 1009.3
20180621082009 63 0 0.0 0.0 0.00 0.01 0.00 93 1009.3
20180621081908 63 0 0.0 0.0 0.00 0.01 0.00 93 1009.3
20180621081808 63 0 0.0 0.0 0.00 0.01 0.00 93 1009.3
20180621081709 63 203 0.0 4.0 0.00 0.01 0.00 93 1009.3
20180621081707 63 202 0.0 0.0 0.00 0.01 0.00 93 1008.9
20180621081608 63 202 0.0 4.0 0.00 0.01 0.00 93 1009.3
20180621081508 63 202 0.0 4.0 0.00 0.01 0.00 93 1009.4
20180621081409 63 202 0.0 4.0 0.00 0.01 0.00 93 1009.3
20180621081309 63 202 0.0 4.0 0.00 0.01 0.00 93 1009.3
20180621081209 63 202 0.0 4.0 0.00 0.01 0.00 93 1009.3
20180621081108 63 202 0.0 4.0 0.00 0.01 0.00 93 1009.3
20180621081009 63 202 0.0 4.0 0.00 0.01 0.00 93 1009.3
20180621080908 63 202 0.0 4.0 0.00 0.01 0.00 93 1009.2
20180621080809 63 202 0.0 4.0 0.00 0.01 0.00 93 1009.2
20180621080708 63 202 0.0 4.0 0.00 0.01 0.00 93 1009.2
20180621080609 63 0 0.0 0.0 0.00 0.01 0.00 93 1009.1
20180621080508 63 0 0.0 0.0 0.00 0.01 0.00 93 1009.1
20180621080408 63 0 0.0 0.0 0.00 0.01 0.00 93 1009.1
20180621080309 63 0 0.0 0.0 0.00 0.01 0.00 93 1009.1
20180621080208 63 0 0.0 0.0 0.00 0.01 0.00 93 1009.1
20180621080109 63 0 0.0 0.0 0.00 0.01 0.00 93 1009.1
20180621080008 63 0 0.0 0.0 0.00 0.01 0.00 93 1009.1
20180621075908 63 0 0.0 0.0 0.00 0.01 0.00 93 1009.0
20180621075809 63 0 0.0 0.0 0.00 0.01 0.00 93 1009.0
20180621075710 63 329 0.0 0.0 0.00 0.01 0.00 93 1008.7
20180621075708 63 0 0.0 0.0 0.00 0.01 0.00 93 1009.1
20180621075609 63 0 0.0 0.0 0.00 0.01 0.00 92 1009.1
20180621075509 63 0 0.0 0.0 0.00 0.01 0.00 92 1009.1
20180621075408 63 0 0.0 0.0 0.00 0.01 0.00 92 1009.1
20180621075309 63 0 0.0 0.0 0.00 0.01 0.00 92 1009.1
20180621075208 63 0 0.0 0.0 0.00 0.01 0.00 92 1009.1
20180621075108 63 0 0.0 0.0 0.00 0.01 0.00 92 1009.1
20180621075009 63 0 0.0 0.0 0.00 0.01 0.00 93 1009.1
20180621074908 63 0 0.0 0.0 0.00 0.01 0.00 93 1009.1
20180621074809 63 0 0.0 0.0 0.00 0.01 0.00 92 1009.2
20180621074708 63 0 0.0 0.0 0.00 0.01 0.00 92 1009.2
20180621074609 63 0 0.0 0.0 0.00 0.01 0.00 93 1009.2
20180621074509 63 0 0.0 0.0 0.00 0.01 0.00 92 1009.2
20180621074408 63 0 0.0 0.0 0.00 0.01 0.00 92 1009.2
20180621074309 63 0 0.0 0.0 0.00 0.01 0.00 92 1009.2
20180621074209 63 0 0.0 0.0 0.00 0.01 0.00 92 1009.2
20180621074109 63 0 0.0 0.0 0.00 0.01 0.00 92 1009.1
20180621074008 63 0 0.0 0.0 0.00 0.01 0.00 92 1009.1
20180621073909 63 0 0.0 0.0 0.00 0.01 0.00 92 1009.1
20180621073907 63 329 0.0 0.0 0.00 0.01 0.00 92 1008.8
20180621073808 63 0 0.0 0.0 0.00 0.01 0.00 92 1009.2
20180621073709 63 0 0.0 0.0 0.00 0.01 0.00 92 1009.2
20180621073608 63 0 0.0 0.0 0.00 0.01 0.00 92 1009.1
20180621073511 64 0 0.0 0.0 0.00 0.01 0.00 92 1009.2
20180621073409 63 0 0.0 0.0 0.00 0.01 0.00 92 1009.2
20180621073308 63 0 0.0 0.0 0.00 0.01 0.00 92 1009.2
20180621073209 64 0 0.0 0.0 0.00 0.01 0.00 92 1009.2
20180621073108 64 0 0.0 0.0 0.00 0.01 0.00 92 1009.2
20180621073008 64 0 0.0 0.0 0.00 0.01 0.00 92 1009.3
20180621072908 64 0 0.0 0.0 0.00 0.01 0.00 92 1009.3
20180621072809 64 0 0.0 0.0 0.00 0.01 0.00 92 1009.3
20180621072708 64 0 0.0 0.0 0.00 0.01 0.00 93 1009.3
20180621072609 64 0 0.0 0.0 0.00 0.01 0.00 92 1009.4
20180621072508 64 0 0.0 0.0 0.00 0.01 0.00 92 1009.4
20180621072408 64 0 0.0 0.0 0.00 0.01 0.00 92 1009.4
20180621072311 64 0 0.0 0.0 0.00 0.01 0.00 92 1009.4
20180621072208 64 0 0.0 0.0 0.00 0.01 0.00 92 1009.4
20180621072111 63 221 0.0 0.0 0.00 0.01 0.00 92 1009.0
20180621072109 64 0 0.0 0.0 0.00 0.01 0.00 92 1009.4
20180621072008 64 0 0.0 0.0 0.00 0.01 0.00 92 1009.4
20180621071909 64 0 0.0 0.0 0.00 0.01 0.00 92 1009.4
20180621071808 64 0 0.0 0.0 0.00 0.01 0.00 92 1009.4
20180621071708 64 0 0.0 0.0 0.00 0.01 0.00 93 1009.4
20180621071609 64 0 0.0 0.0 0.00 0.01 0.00 92 1009.4
20180621071508 64 0 0.0 0.0 0.00 0.01 0.00 93 1009.4
20180621071408 64 332 0.0 3.0 0.00 0.01 0.00 92 1009.4
20180621071309 64 332 0.0 3.0 0.00 0.01 0.00 92 1009.5
20180621071209 64 332 0.0 3.0 0.00 0.01 0.00 92 1009.5
20180621071108 64 331 0.0 4.0 0.00 0.01 0.00 92 1009.5
20180621071008 64 330 0.0 4.0 0.00 0.01 0.00 92 1009.5
20180621070909 64 330 0.0 4.0 0.00 0.01 0.00 92 1009.5
20180621070808 64 330 0.0 4.0 0.00 0.01 0.00 92 1009.5
20180621070709 64 330 0.0 4.0 0.00 0.01 0.00 92 1009.5
20180621070608 64 330 0.0 4.0 0.00 0.01 0.00 92 1009.5
20180621070509 64 330 0.0 4.0 0.00 0.01 0.00 92 1009.5
20180621070410 64 329 0.0 4.0 0.00 0.01 0.00 92 1009.4
20180621070310 64 329 0.0 4.0 0.00 0.01 0.00 92 1009.5
20180621070307 63 333 1.0 3.0 0.00 0.01 0.00 92 1009.1
20180621070208 64 323 0.0 4.0 0.00 0.01 0.00 92 1009.4
20180621070109 64 309 0.0 4.0 0.00 0.01 0.00 92 1009.4
20180621070008 64 302 0.0 3.0 0.00 0.01 0.00 92 1009.4
20180621065909 64 302 0.0 3.0 0.00 0.01 0.00 92 1009.5
20180621065808 64 302 0.0 3.0 0.00 0.01 0.00 92 1009.4
20180621065708 64 302 0.0 3.0 0.00 0.01 0.00 92 1009.4
20180621065609 64 302 0.0 3.0 0.00 0.01 0.00 92 1009.4
20180621065508 64 302 0.0 3.0 0.00 0.01 0.00 92 1009.4
20180621065408 64 233 0.0 6.0 0.00 0.01 0.00 92 1009.4
20180621065308 64 216 0.0 6.0 0.00 0.01 0.00 92 1009.4
20180621065208 64 195 0.0 6.0 0.00 0.01 0.00 92 1009.4
20180621065108 64 191 0.0 6.0 0.00 0.01 0.00 92 1009.4
20180621065009 64 159 1.0 6.0 0.00 0.01 0.00 92 1009.4
20180621064908 64 126 1.0 6.0 0.00 0.01 0.00 92 1009.4
20180621064808 64 124 1.0 6.0 0.00 0.01 0.00 92 1009.4
20180621064709 64 117 1.0 6.0 0.00 0.01 0.00 92 1009.3
20180621064608 64 117 1.0 6.0 0.00 0.01 0.00 92 1009.3
20180621064510 63 208 1.0 5.0 0.00 0.01 0.00 92 1009.0
20180621064508 64 117 1.0 6.0 0.00 0.01 0.00 92 1009.3
20180621064409 64 93 1.0 4.0 0.00 0.01 0.00 92 1009.3
20180621064308 64 86 1.0 4.0 0.00 0.01 0.00 92 1009.3
20180621064208 64 86 1.0 4.0 0.00 0.01 0.00 92 1009.3
20180621064108 64 86 1.0 4.0 0.00 0.01 0.00 92 1009.3
20180621064008 64 87 0.0 4.0 0.00 0.01 0.00 92 1009.4
20180621063908 64 86 0.0 3.0 0.00 0.01 0.00 92 1009.4
20180621063809 64 14 0.0 3.0 0.00 0.01 0.00 92 1009.4
20180621063708 64 17 0.0 2.0 0.00 0.01 0.00 92 1009.4
20180621063608 64 17 0.0 2.0 0.00 0.01 0.00 92 1009.5
20180621063509 64 17 0.0 2.0 0.00 0.01 0.00 92 1009.5
20180621063408 64 17 0.0 2.0 0.00 0.01 0.00 92 1009.5
20180621063308 64 18 0.0 3.0 0.00 0.01 0.00 92 1009.5
20180621063209 64 18 0.0 3.0 0.00 0.01 0.00 92 1009.5
20180621063108 64 28 0.0 3.0 0.00 0.01 0.00 92 1009.5
20180621063008 64 50 0.0 3.0 0.00 0.01 0.00 92 1009.5
20180621062908 64 50 0.0 3.0 0.00 0.01 0.00 92 1009.5
20180621062808 64 62 0.0 4.0 0.00 0.01 0.00 92 1009.5
20180621062709 63 17 0.0 3.0 0.00 0.01 0.00 92 1009.2
20180621062609 64 64 0.0 4.0 0.00 0.01 0.00 92 1009.6
20180621062508 64 64 0.0 4.0 0.00 0.01 0.00 92 1009.6
20180621062408 64 64 0.0 4.0 0.00 0.01 0.00 92 1009.7
20180621062309 64 101 0.0 4.0 0.00 0.01 0.00 92 1009.6
20180621062208 64 101 0.0 4.0 0.00 0.01 0.00 92 1009.7
20180621062108 64 106 0.0 4.0 0.00 0.01 0.00 92 1009.7
20180621062009 64 182 0.0 4.0 0.00 0.01 0.00 92 1009.8
20180621061908 64 182 0.0 4.0 0.00 0.01 0.00 92 1009.8
20180621061808 64 227 0.0 2.0 0.00 0.01 0.00 92 1009.8
20180621061708 64 227 0.0 2.0 0.00 0.01 0.00 92 1009.8
20180621061608 64 227 0.0 3.0 0.00 0.01 0.00 92 1009.9
20180621061508 64 227 0.0 3.0 0.00 0.01 0.00 92 1009.9
20180621061409 64 227 0.0 3.0 0.00 0.01 0.00 92 1009.9
20180621061308 64 227 0.0 3.0 0.00 0.01 0.00 92 1009.9
20180621061208 64 227 0.0 3.0 0.00 0.01 0.00 92 1010.0
20180621061108 64 227 0.0 3.0 0.00 0.01 0.00 92 1010.0
20180621061008 64 227 0.0 3.0 0.00 0.01 0.00 92 1010.1
20180621060908 64 227 0.0 3.0 0.00 0.01 0.00 92 1010.1
20180621060808 64 41 0.0 3.0 0.00 0.01 0.00 92 1010.1
20180621060709 63 226 0.0 2.0 0.00 0.01 0.00 92 1009.8
20180621060608 64 59 1.0 4.0 0.00 0.01 0.00 92 1010.1
20180621060508 64 59 1.0 4.0 0.00 0.01 0.00 92 1010.1
20180621060409 64 58 1.0 4.0 0.00 0.01 0.00 92 1010.1
20180621060308 64 55 1.0 4.0 0.00 0.01 0.00 92 1010.1
20180621060208 64 34 1.0 4.0 0.00 0.01 0.00 92 1010.2
20180621060109 64 30 1.0 4.0 0.00 0.01 0.00 92 1010.1
20180621060008 64 24 1.0 4.0 0.00 0.01 0.00 92 1010.1
20180621055908 64 17 1.0 4.0 0.00 0.01 0.00 92 1010.2
20180621055809 64 2 1.0 4.0 0.00 0.01 0.00 92 1010.2
20180621055708 64 344 1.0 4.0 0.00 0.01 0.00 92 1010.2
20180621055608 64 353 0.0 3.0 0.00 0.01 0.00 92 1010.2
20180621055508 64 353 0.0 3.0 0.00 0.01 0.00 92 1010.2
20180621055408 64 353 0.0 3.0 0.00 0.01 0.00 92 1010.2
20180621055308 64 353 0.0 3.0 0.00 0.01 0.00 92 1010.2
20180621055208 64 350 0.0 3.0 0.00 0.01 0.00 92 1010.2
20180621055108 64 347 0.0 3.0 0.00 0.01 0.00 92 1010.2
20180621055008 64 358 0.0 4.0 0.00 0.01 0.00 92 1010.2
20180621054908 64 347 0.0 4.0 0.00 0.01 0.00 92 1010.2
20180621054808 64 347 0.0 4.0 0.00 0.01 0.00 92 1010.2
20180621054709 64 342 0.0 4.0 0.00 0.01 0.00 92 1010.2
20180621054608 64 266 1.0 4.0 0.00 0.01 0.00 92 1010.2
20180621054508 64 250 1.0 4.0 0.00 0.01 0.00 92 1010.2
20180621054409 64 241 1.0 4.0 0.00 0.01 0.00 92 1010.3
20180621054309 64 225 1.0 9.0 0.00 0.01 0.00 92 1010.3
20180621054208 64 225 1.0 9.0 0.00 0.01 0.00 92 1010.3
20180621054109 64 225 1.0 9.0 0.00 0.01 0.00 92 1010.4
20180621054008 64 218 1.0 9.0 0.00 0.01 0.00 92 1010.4
20180621053908 64 214 1.0 9.0 0.00 0.01 0.00 92 1010.3
20180621053809 64 214 1.0 9.0 0.00 0.01 0.00 92 1010.3
20180621053708 64 214 1.0 9.0 0.00 0.01 0.00 92 1010.3
20180621053608 64 209 1.0 9.0 0.00 0.01 0.00 92 1010.3
20180621053509 64 204 1.0 9.0 0.00 0.01 0.00 92 1010.3
20180621053408 64 204 1.0 9.0 0.00 0.01 0.00 92 1010.3
20180621053308 64 202 1.0 8.0 0.00 0.01 0.00 92 1010.3
20180621053208 64 202 1.0 8.0 0.00 0.01 0.00 92 1010.3
20180621053108 64 202 1.0 8.0 0.00 0.01 0.00 92 1010.4
20180621053008 64 202 1.0 8.0 0.00 0.01 0.00 92 1010.4
20180621052908 64 202 1.0 8.0 0.00 0.01 0.00 92 1010.4
20180621052808 64 199 1.0 8.0 0.00 0.01 0.00 92 1010.5
20180621052708 64 198 1.0 8.0 0.00 0.01 0.00 92 1010.5
20180621052608 64 198 1.0 8.0 0.00 0.01 0.00 92 1010.4
20180621052509 64 198 1.0 8.0 0.00 0.01 0.00 92 1010.4
20180621052408 64 186 0.0 3.0 0.00 0.01 0.00 92 1010.4
20180621052308 64 174 0.0 3.0 0.00 0.01 0.00 92 1010.3
20180621052208 64 133 1.0 3.0 0.00 0.01 0.00 92 1010.3
20180621052108 64 123 1.0 4.0 0.00 0.01 0.00 92 1010.3
20180621052009 64 107 1.0 4.0 0.00 0.01 0.00 92 1010.3
20180621051908 64 98 1.0 4.0 0.00 0.01 0.00 92 1010.3
20180621051808 64 75 0.0 4.0 0.00 0.01 0.00 92 1010.3
20180621051709 64 64 0.0 4.0 0.00 0.01 0.00 92 1010.2
20180621051608 64 64 0.0 4.0 0.00 0.01 0.00 92 1010.2
20180621051508 64 64 0.0 4.0 0.00 0.01 0.00 92 1010.2
20180621051408 64 64 0.0 4.0 0.00 0.01 0.00 92 1010.2
20180621051311 63 64 1.0 3.0 0.00 0.01 0.00 92 1009.9
20180621051308 64 64 0.0 4.0 0.00 0.01 0.00 92 1010.2
20180621051208 64 64 0.0 4.0 0.00 0.01 0.00 92 1010.2
20180621051109 64 64 0.0 4.0 0.00 0.01 0.00 92 1010.3
20180621051008 64 0 0.0 0.0 0.00 0.01 0.00 92 1010.3
20180621050908 64 0 0.0 0.0 0.00 0.01 0.00 92 1010.3
20180621050808 64 0 0.0 0.0 0.00 0.01 0.00 92 1010.3
20180621050708 64 0 0.0 0.0 0.00 0.01 0.00 92 1010.3
20180621050608 64 0 0.0 0.0 0.00 0.01 0.00 92 1010.3
20180621050508 64 0 0.0 0.0 0.00 0.01 0.00 91 1010.3
20180621050408 64 0 0.0 0.0 0.00 0.01 0.00 91 1010.4
20180621050309 64 0 0.0 0.0 0.00 0.01 0.00 92 1010.3
20180621050208 64 0 0.0 0.0 0.00 0.01 0.00 91 1010.4
20180621050108 64 0 0.0 0.0 0.00 0.01 0.00 91 1010.4
20180621050009 64 0 0.0 0.0 0.00 0.01 0.00 91 1010.4
20180621045908 64 0 0.0 0.0 0.00 0.01 0.01 91 1010.4
20180621045808 64 0 0.0 0.0 0.00 0.01 0.01 91 1010.4
20180621045708 64 0 0.0 0.0 0.00 0.01 0.01 91 1010.4
20180621045608 64 0 0.0 0.0 0.00 0.01 0.01 91 1010.5
20180621045512 63 67 0.0 0.0 0.00 0.01 0.01 91 1010.1
20180621045508 64 0 0.0 0.0 0.00 0.01 0.01 91 1010.5
20180621045408 64 0 0.0 0.0 0.00 0.01 0.01 91 1010.5
20180621045308 64 214 0.0 3.0 0.00 0.01 0.01 91 1010.5
20180621045208 64 229 0.0 6.0 0.00 0.01 0.01 91 1010.5
20180621045108 64 250 1.0 6.0 0.00 0.01 0.01 91 1010.5
20180621045008 64 253 1.0 6.0 0.00 0.01 0.01 91 1010.5
20180621044909 64 256 1.0 6.0 0.00 0.01 0.01 91 1010.5
20180621044808 64 256 1.0 6.0 0.00 0.01 0.01 91 1010.5
20180621044708 64 256 1.0 6.0 0.00 0.01 0.01 91 1010.5
20180621044608 64 256 1.0 6.0 0.00 0.01 0.01 91 1010.5
20180621044508 64 256 1.0 6.0 0.00 0.01 0.01 91 1010.6
20180621044408 64 256 1.0 6.0 0.00 0.01 0.01 91 1010.6
20180621044309 64 260 1.0 6.0 0.00 0.01 0.01 91 1010.5
20180621044208 64 275 0.0 3.0 0.00 0.01 0.01 91 1010.5
20180621044108 64 260 0.0 3.0 0.00 0.01 0.01 91 1010.5
20180621044008 64 253 0.0 3.0 0.00 0.01 0.01 91 1010.5
20180621043908 64 229 0.0 3.0 0.00 0.01 0.01 91 1010.4
20180621043808 64 229 0.0 3.0 0.00 0.01 0.01 91 1010.4
20180621043708 65 229 0.0 3.0 0.00 0.01 0.01 91 1010.4
20180621043608 65 229 0.0 3.0 0.00 0.01 0.01 91 1010.4
20180621043508 65 229 0.0 3.0 0.00 0.01 0.01 91 1010.4
20180621043408 65 229 0.0 3.0 0.00 0.01 0.01 91 1010.4
20180621043308 65 229 0.0 3.0 0.00 0.01 0.01 91 1010.4
20180621043208 65 0 0.0 0.0 0.00 0.01 0.01 91 1010.4
20180621043108 65 0 0.0 0.0 0.00 0.01 0.01 91 1010.4
20180621043008 65 0 0.0 0.0 0.00 0.01 0.01 91 1010.4
20180621042908 65 0 0.0 0.0 0.00 0.01 0.01 91 1010.3
20180621042809 65 0 0.0 0.0 0.00 0.01 0.01 91 1010.3
20180621042708 65 0 0.0 0.0 0.00 0.01 0.01 91 1010.2
20180621042608 65 0 0.0 0.0 0.00 0.01 0.01 91 1010.2
20180621042509 65 0 0.0 0.0 0.00 0.01 0.01 91 1010.1
20180621042408 65 0 0.0 0.0 0.00 0.01 0.01 91 1010.1
20180621042308 65 233 0.0 2.0 0.00 0.01 0.01 91 1010.2
20180621042208 65 232 0.0 6.0 0.00 0.01 0.01 90 1010.2
20180621042108 65 232 0.0 6.0 0.00 0.01 0.01 90 1010.2
20180621042008 65 232 0.0 6.0 0.00 0.01 0.01 90 1010.2
20180621041911 65 232 0.0 6.0 0.00 0.01 0.01 90 1010.4
20180621041808 65 232 0.0 6.0 0.00 0.01 0.01 90 1010.4
20180621041708 65 232 0.0 6.0 0.00 0.01 0.01 90 1010.3
20180621041608 65 232 0.0 6.0 0.00 0.01 0.01 90 1010.3
20180621041508 65 232 0.0 6.0 0.00 0.01 0.01 90 1010.3
20180621041408 65 232 0.0 6.0 0.00 0.01 0.01 90 1010.3
20180621041308 65 232 0.0 6.0 0.00 0.01 0.01 90 1010.3
20180621041209 65 0 0.0 0.0 0.00 0.01 0.01 90 1010.3
20180621041108 65 0 0.0 0.0 0.00 0.01 0.01 90 1010.3
20180621041008 65 0 0.0 0.0 0.00 0.01 0.01 90 1010.3
20180621040908 66 0 0.0 0.0 0.00 0.01 0.01 90 1010.3
20180621040808 66 0 0.0 0.0 0.00 0.01 0.01 90 1010.3
20180621040708 66 0 0.0 0.0 0.00 0.01 0.01 90 1010.3
20180621040608 66 0 0.0 0.0 0.00 0.01 0.01 90 1010.3
20180621040509 66 0 0.0 0.0 0.00 0.01 0.01 90 1010.4
20180621040408 66 0 0.0 0.0 0.00 0.01 0.01 90 1010.4
20180621040308 66 0 0.0 0.0 0.00 0.01 0.01 90 1010.4
20180621040208 66 0 0.0 0.0 0.00 0.01 0.01 90 1010.5
20180621040108 66 0 0.0 0.0 0.00 0.01 0.01 90 1010.4
20180621040008 66 0 0.0 0.0 0.00 0.01 0.01 90 1010.4
20180621035908 66 0 0.0 0.0 0.00 0.01 0.01 90 1010.4
20180621035808 66 0 0.0 0.0 0.00 0.01 0.01 90 1010.4
20180621035708 66 0 0.0 0.0 0.00 0.01 0.01 90 1010.5
20180621035608 66 0 0.0 0.0 0.00 0.01 0.01 90 1010.5
20180621035508 66 0 0.0 0.0 0.00 0.01 0.01 90 1010.6
20180621035408 66 0 0.0 0.0 0.00 0.01 0.01 89 1010.7
20180621035308 66 0 0.0 0.0 0.00 0.01 0.01 90 1010.7
20180621035208 66 0 0.0 0.0 0.00 0.01 0.01 90 1010.8
20180621035108 66 191 0.0 4.0 0.00 0.01 0.01 90 1010.9
20180621035008 66 191 0.0 4.0 0.00 0.01 0.01 90 1010.9
20180621034908 66 191 0.0 4.0 0.00 0.01 0.01 90 1010.9
20180621034808 66 191 0.0 4.0 0.00 0.01 0.01 90 1010.9
20180621034708 66 191 0.0 4.0 0.00 0.01 0.01 90 1011.0
20180621034608 66 191 0.0 4.0 0.00 0.01 0.01 90 1011.0
20180621034508 66 191 0.0 4.0 0.00 0.01 0.01 90 1011.0
20180621034408 66 191 0.0 4.0 0.00 0.01 0.01 89 1011.0
20180621034308 66 191 0.0 4.0 0.00 0.01 0.01 89 1011.1
20180621034208 66 191 0.0 4.0 0.00 0.01 0.01 89 1011.1
20180621034109 66 0 0.0 0.0 0.00 0.01 0.01 90 1011.3
20180621034106 65 205 0.0 0.0 0.00 0.01 0.01 90 1010.9
20180621034008 66 0 0.0 0.0 0.00 0.01 0.01 90 1011.3
20180621033908 66 0 0.0 0.0 0.00 0.01 0.01 90 1011.3
20180621033808 66 0 0.0 0.0 0.00 0.01 0.01 90 1011.3
20180621033708 66 0 0.0 0.0 0.00 0.01 0.01 90 1011.3
20180621033608 66 0 0.0 0.0 0.00 0.01 0.01 90 1011.3
20180621033508 66 0 0.0 0.0 0.00 0.01 0.01 90 1011.3
20180621033408 66 0 0.0 0.0 0.00 0.01 0.01 90 1011.4
20180621033309 66 0 0.0 0.0 0.00 0.01 0.01 90 1011.4
20180621033209 66 0 0.0 0.0 0.00 0.01 0.01 89 1011.4
20180621033108 66 0 0.0 0.0 0.00 0.01 0.01 90 1011.4
20180621033007 66 0 0.0 0.0 0.00 0.01 0.01 90 1011.4
20180621032908 66 0 0.0 0.0 0.00 0.01 0.01 90 1011.4
20180621032808 66 0 0.0 0.0 0.00 0.01 0.01 90 1011.4
20180621032708 66 0 0.0 0.0 0.00 0.01 0.01 90 1011.4
20180621032608 66 0 0.0 0.0 0.00 0.01 0.01 90 1011.4
20180621032508 66 0 0.0 0.0 0.00 0.01 0.01 90 1011.4
20180621032408 66 0 0.0 0.0 0.00 0.01 0.01 90 1011.3
20180621032308 66 0 0.0 0.0 0.00 0.01 0.01 90 1011.3
20180621032208 66 0 0.0 0.0 0.00 0.01 0.01 90 1011.4
20180621032109 66 200 0.0 2.0 0.00 0.01 0.01 90 1011.5
20180621032008 66 200 0.0 3.0 0.00 0.01 0.01 90 1011.5
20180621031908 66 208 0.0 6.0 0.00 0.01 0.01 90 1011.5
20180621031808 66 214 1.0 6.0 0.00 0.01 0.01 90 1011.5
20180621031708 66 214 1.0 6.0 0.00 0.01 0.01 90 1011.5
20180621031608 66 217 1.0 6.0 0.00 0.01 0.01 90 1011.5
20180621031508 66 217 1.0 6.0 0.00 0.01 0.01 89 1011.5
20180621031408 66 218 1.0 6.0 0.00 0.01 0.01 90 1011.4
20180621031308 66 218 1.0 6.0 0.00 0.01 0.01 90 1011.4
20180621031209 66 218 1.0 6.0 0.00 0.01 0.01 90 1011.4
20180621031108 66 219 1.0 6.0 0.00 0.01 0.01 89 1011.3
20180621031008 66 220 1.0 6.0 0.00 0.01 0.01 89 1011.3
20180621030908 66 226 1.0 4.0 0.00 0.01 0.01 90 1011.3
20180621030808 66 225 0.0 3.0 0.00 0.01 0.01 90 1011.2
20180621030708 66 225 0.0 3.0 0.00 0.01 0.01 90 1011.2
20180621030608 66 225 0.0 3.0 0.00 0.01 0.01 90 1011.2
20180621030508 66 225 0.0 3.0 0.00 0.01 0.01 90 1011.2
20180621030408 66 0 0.0 0.0 0.00 0.01 0.01 90 1011.2
20180621030307 66 0 0.0 0.0 0.00 0.01 0.01 90 1011.2
20180621030210 66 0 0.0 0.0 0.00 0.01 0.01 90 1011.2
20180621030108 66 0 0.0 0.0 0.00 0.01 0.01 90 1011.4
20180621030008 67 0 0.0 0.0 0.00 0.01 0.01 90 1011.4
20180621025908 66 0 0.0 0.0 0.00 0.01 0.01 90 1011.6
20180621025808 67 225 0.0 3.0 0.00 0.01 0.01 90 1011.6
20180621025708 66 224 0.0 4.0 0.00 0.01 0.01 90 1011.7
20180621025608 66 237 1.0 6.0 0.00 0.01 0.01 90 1011.7
20180621025508 66 237 1.0 6.0 0.00 0.01 0.01 90 1011.7
20180621025408 66 239 1.0 6.0 0.00 0.01 0.01 89 1011.7
20180621025308 66 243 1.0 6.0 0.00 0.01 0.01 89 1011.7
20180621025208 66 248 1.0 6.0 0.00 0.01 0.01 89 1011.8
20180621025108 67 255 1.0 6.0 0.00 0.01 0.01 89 1011.7
20180621025009 66 264 1.0 6.0 0.00 0.01 0.01 89 1011.6
20180621024908 66 275 2.0 6.0 0.00 0.01 0.01 89 1011.5
20180621024808 67 282 1.0 6.0 0.00 0.01 0.01 89 1011.4
20180621024707 67 299 1.0 6.0 0.00 0.01 0.01 89 1011.4
20180621024608 67 322 1.0 4.0 0.00 0.01 0.01 89 1011.3
20180621024509 66 287 0.0 3.0 0.00 0.01 0.01 89 1010.9
20180621024409 67 323 1.0 4.0 0.00 0.01 0.01 89 1011.2
20180621024308 67 328 1.0 4.0 0.00 0.01 0.01 89 1011.1
20180621024207 67 337 1.0 4.0 0.00 0.01 0.01 89 1011.1
20180621024108 67 349 0.0 4.0 0.00 0.01 0.01 89 1011.0
20180621024008 67 346 0.0 4.0 0.00 0.01 0.01 89 1011.0
20180621023909 67 346 0.0 2.0 0.00 0.01 0.01 89 1011.0
20180621023808 67 346 0.0 2.0 0.00 0.01 0.01 89 1010.9
20180621023710 67 346 0.0 3.0 0.00 0.01 0.01 89 1010.9
20180621023608 67 346 0.0 3.0 0.00 0.01 0.01 89 1010.9
20180621023508 67 345 0.0 3.0 0.00 0.01 0.01 89 1010.9
20180621023408 67 345 0.0 3.0 0.00 0.01 0.01 89 1010.9
20180621023308 67 345 0.0 3.0 0.00 0.01 0.01 89 1010.7
20180621023208 67 345 0.0 3.0 0.00 0.01 0.01 89 1010.7
20180621023108 67 342 1.0 3.0 0.00 0.01 0.01 89 1010.7
20180621023008 67 318 1.0 4.0 0.00 0.01 0.01 89 1010.7
20180621022908 67 314 1.0 4.0 0.00 0.01 0.01 88 1010.6
20180621022808 67 309 1.0 4.0 0.00 0.01 0.01 88 1010.6
20180621022710 66 346 0.0 3.0 0.00 0.01 0.01 88 1010.3
20180621022708 67 295 1.0 4.0 0.00 0.01 0.01 88 1010.6
20180621022608 67 289 1.0 4.0 0.00 0.01 0.01 88 1010.6
20180621022510 67 266 0.0 4.0 0.00 0.01 0.01 89 1010.5
20180621022408 67 286 1.0 4.0 0.00 0.01 0.01 89 1010.5
20180621022308 67 272 1.0 4.0 0.00 0.01 0.01 88 1010.5
20180621022208 67 271 1.0 4.0 0.00 0.01 0.01 88 1010.5
20180621022108 67 268 1.0 4.0 0.00 0.01 0.01 88 1010.6
20180621022008 67 283 1.0 4.0 0.00 0.01 0.01 88 1010.6
20180621021908 67 286 1.0 4.0 0.00 0.01 0.01 88 1010.6
20180621021808 67 281 1.0 4.0 0.00 0.01 0.01 88 1010.6
20180621021708 67 279 1.0 4.0 0.00 0.01 0.01 88 1010.5
20180621021607 67 279 1.0 4.0 0.00 0.01 0.01 88 1010.5
20180621021508 67 279 1.0 4.0 0.00 0.01 0.01 88 1010.5
20180621021408 67 248 0.0 3.0 0.00 0.01 0.01 88 1010.4
20180621021309 67 274 0.0 3.0 0.00 0.01 0.01 89 1010.4
20180621021208 67 276 0.0 3.0 0.00 0.01 0.01 88 1010.4
20180621021108 67 309 0.0 3.0 0.00 0.01 0.01 89 1010.3
20180621021008 67 306 0.0 3.0 0.00 0.01 0.01 89 1010.3
20180621020908 67 274 0.0 2.0 0.00 0.01 0.01 88 1010.3
20180621020808 67 274 0.0 2.0 0.00 0.01 0.01 89 1010.3
20180621020709 67 0 0.0 0.0 0.00 0.01 0.01 89 1010.3
20180621020608 67 0 0.0 0.0 0.00 0.01 0.01 89 1010.3
20180621020508 67 0 0.0 0.0 0.00 0.01 0.01 89 1010.2
20180621020407 68 1 0.0 2.0 0.00 0.01 0.01 89 1010.2
20180621020308 68 349 0.0 2.0 0.00 0.01 0.01 89 1010.3
20180621020208 68 341 0.0 2.0 0.00 0.01 0.01 90 1010.3
20180621020107 68 332 0.0 3.0 0.00 0.01 0.01 89 1010.2
20180621020008 68 332 0.0 3.0 0.00 0.01 0.01 89 1010.2
20180621015909 68 329 0.0 3.0 0.00 0.01 0.01 89 1010.2
20180621015808 68 328 0.0 3.0 0.00 0.01 0.01 89 1010.3
20180621015708 68 328 0.0 3.0 0.00 0.01 0.01 89 1010.3
20180621015608 68 328 0.0 3.0 0.00 0.01 0.01 89 1010.3
20180621015508 68 328 0.0 3.0 0.00 0.01 0.01 89 1010.3
20180621015408 68 328 0.0 3.0 0.00 0.01 0.01 89 1010.3
20180621015308 68 325 0.0 3.0 0.00 0.01 0.01 89 1010.4
20180621015208 68 325 0.0 3.0 0.00 0.01 0.01 89 1010.4
20180621015108 67 325 0.0 2.0 0.00 0.01 0.01 89 1010.0
20180621015008 68 325 0.0 3.0 0.00 0.01 0.01 89 1010.3
20180621014908 68 325 0.0 3.0 0.00 0.01 0.01 89 1010.3
20180621014808 68 0 0.0 0.0 0.00 0.01 0.01 89 1010.3
20180621014707 68 0 0.0 0.0 0.00 0.01 0.01 89 1010.2
20180621014608 68 0 0.0 0.0 0.00 0.01 0.01 89 1010.2
20180621014508 68 0 0.0 0.0 0.00 0.01 0.01 89 1010.2
20180621014408 68 321 0.0 2.0 0.00 0.01 0.01 89 1010.2
20180621014308 68 326 0.0 4.0 0.00 0.01 0.01 89 1010.2
20180621014208 68 326 0.0 4.0 0.00 0.01 0.01 89 1010.3
20180621014108 68 326 0.0 4.0 0.00 0.01 0.01 89 1010.2
20180621014008 68 326 0.0 4.0 0.00 0.01 0.01 89 1010.3
20180621013908 68 329 0.0 4.0 0.00 0.01 0.01 89 1010.3
20180621013808 68 337 0.0 4.0 0.00 0.01 0.01 89 1010.3
20180621013708 68 338 0.0 4.0 0.00 0.01 0.01 89 1010.4
20180621013608 68 352 0.0 4.0 0.00 0.01 0.01 89 1010.5
20180621013508 68 352 0.0 4.0 0.00 0.01 0.01 89 1010.4
20180621013408 68 355 0.0 4.0 0.00 0.01 0.01 89 1010.4
20180621013309 67 25 0.0 2.0 0.00 0.01 0.01 89 1010.0
20180621013307 68 21 0.0 3.0 0.00 0.01 0.01 89 1010.4
20180621013208 68 21 0.0 3.0 0.00 0.01 0.01 89 1010.4
20180621013108 68 21 0.0 3.0 0.00 0.01 0.01 88 1010.4
20180621013008 68 21 0.0 3.0 0.00 0.01 0.01 88 1010.4
20180621012908 68 21 0.0 3.0 0.00 0.01 0.01 88 1010.4
20180621012808 68 21 0.0 3.0 0.00 0.01 0.01 88 1010.4
20180621012707 68 22 0.0 3.0 0.00 0.01 0.01 88 1010.4
20180621012608 68 0 0.0 0.0 0.00 0.01 0.01 88 1010.4
20180621012508 68 0 0.0 0.0 0.00 0.01 0.01 88 1010.5
20180621012410 68 0 0.0 0.0 0.00 0.01 0.01 88 1010.5
20180621012308 68 0 0.0 0.0 0.00 0.01 0.01 88 1010.6
20180621012207 68 0 0.0 0.0 0.00 0.01 0.01 88 1010.6
20180621012108 68 0 0.0 0.0 0.00 0.01 0.01 88 1010.6
20180621012008 68 0 0.0 0.0 0.00 0.01 0.01 88 1010.6
20180621011908 68 0 0.0 0.0 0.00 0.01 0.01 88 1010.7
20180621011810 68 0 0.0 0.0 0.00 0.01 0.01 88 1010.7
20180621011708 68 0 0.0 0.0 0.00 0.01 0.01 88 1010.7
20180621011608 68 0 0.0 0.0 0.00 0.01 0.01 88 1010.7
20180621011508 68 0 0.0 0.0 0.00 0.01 0.01 88 1010.7
20180621011408 68 38 0.0 2.0 0.00 0.01 0.01 88 1010.7
20180621011307 68 35 0.0 2.0 0.00 0.01 0.01 88 1010.8
20180621011208 68 242 0.0 4.0 0.00 0.01 0.01 88 1010.8
20180621011108 68 242 0.0 4.0 0.00 0.01 0.01 87 1010.8
20180621011008 68 242 0.0 4.0 0.00 0.01 0.01 87 1010.8
20180621010908 68 242 0.0 4.0 0.00 0.01 0.01 87 1010.8
20180621010808 69 242 0.0 4.0 0.00 0.01 0.01 87 1010.8
20180621010707 69 27 0.0 4.0 0.00 0.01 0.01 87 1010.8
20180621010608 69 31 0.0 4.0 0.00 0.01 0.01 87 1010.9
20180621010507 69 32 0.0 4.0 0.00 0.01 0.01 88 1010.8
20180621010408 69 34 1.0 4.0 0.00 0.01 0.01 88 1010.8
20180621010308 69 34 1.0 4.0 0.00 0.01 0.01 88 1010.8
20180621010207 69 38 0.0 3.0 0.00 0.01 0.01 88 1010.8
20180621010108 69 39 1.0 3.0 0.00 0.01 0.01 88 1010.8
20180621010008 69 39 1.0 3.0 0.00 0.01 0.01 87 1010.8
20180621005908 69 39 1.0 3.0 0.00 0.01 0.01 87 1010.8
20180621005808 69 39 1.0 3.0 0.00 0.01 0.01 87 1010.9
20180621005708 69 39 1.0 3.0 0.00 0.01 0.01 88 1010.9
20180621005607 69 40 1.0 3.0 0.00 0.01 0.01 88 1010.9
20180621005508 69 40 1.0 3.0 0.00 0.01 0.01 88 1010.8
20180621005408 69 40 1.0 3.0 0.00 0.01 0.01 87 1010.8
20180621005309 69 40 1.0 3.0 0.00 0.01 0.01 87 1010.9
20180621005208 69 40 1.0 3.0 0.00 0.01 0.01 87 1010.9
20180621005108 69 38 0.0 3.0 0.00 0.01 0.01 87 1010.9
20180621005008 69 37 0.0 3.0 0.00 0.01 0.01 87 1010.9
20180621004908 69 36 0.0 3.0 0.00 0.01 0.01 87 1011.0
20180621004808 69 36 0.0 3.0 0.00 0.01 0.01 87 1011.0
20180621004708 69 36 0.0 3.0 0.00 0.01 0.01 87 1011.0
20180621004608 69 36 0.0 3.0 0.00 0.01 0.01 87 1011.0
20180621004508 69 36 0.0 3.0 0.00 0.01 0.01 87 1011.1
20180621004408 69 0 0.0 0.0 0.00 0.01 0.01 87 1011.1
20180621004308 69 0 0.0 0.0 0.00 0.01 0.01 88 1011.1
20180621004208 69 0 0.0 0.0 0.00 0.01 0.01 88 1011.2
20180621004108 69 0 0.0 0.0 0.00 0.01 0.01 88 1011.2
20180621004008 69 74 0.0 3.0 0.00 0.01 0.01 88 1011.2
20180621003908 70 74 0.0 3.0 0.00 0.01 0.01 88 1011.3
20180621003808 70 74 0.0 3.0 0.00 0.01 0.01 88 1011.3
20180621003709 69 265 0.0 2.0 0.00 0.01 0.01 88 1010.9
20180621003608 70 74 0.0 3.0 0.00 0.01 0.01 87 1011.3
20180621003508 70 74 0.0 3.0 0.00 0.01 0.01 88 1011.3
20180621003408 70 75 0.0 3.0 0.00 0.01 0.01 88 1011.3
20180621003307 70 75 0.0 3.0 0.00 0.01 0.01 87 1011.2
20180621003208 70 75 0.0 3.0 0.00 0.01 0.01 87 1011.2
20180621003108 70 75 0.0 3.0 0.00 0.01 0.01 87 1011.3
20180621003007 70 75 0.0 2.0 0.00 0.01 0.01 87 1011.3
20180621002909 70 75 0.0 2.0 0.00 0.01 0.01 87 1011.3
20180621002808 70 75 0.0 2.0 0.00 0.01 0.01 87 1011.3
20180621002708 70 90 0.0 3.0 0.00 0.01 0.01 87 1011.3
20180621002607 70 90 0.0 3.0 0.00 0.01 0.01 87 1011.3
20180621002508 70 93 0.0 3.0 0.00 0.01 0.01 87 1011.3
20180621002408 70 96 0.0 3.0 0.00 0.01 0.01 87 1011.3
20180621002307 70 96 0.0 3.0 0.00 0.01 0.01 87 1011.3
20180621002208 70 96 0.0 3.0 0.00 0.01 0.01 87 1011.3
20180621002108 70 96 0.0 3.0 0.00 0.01 0.01 87 1011.3
20180621002007 70 96 0.0 3.0 0.00 0.01 0.01 87 1011.3
20180621001908 70 96 0.0 3.0 0.00 0.01 0.01 87 1011.3
20180621001808 70 96 0.0 3.0 0.00 0.01 0.01 87 1011.3
20180621001708 70 96 0.0 2.0 0.00 0.01 0.01 87 1011.3
20180621001608 70 0 0.0 0.0 0.00 0.01 0.01 87 1011.3
20180621001508 70 0 0.0 0.0 0.00 0.01 0.01 87 1011.3
20180621001408 70 0 0.0 0.0 0.00 0.01 0.01 88 1011.3
20180621001308 70 0 0.0 0.0 0.00 0.01 0.01 87 1011.3
20180621001208 70 0 0.0 0.0 0.00 0.01 0.01 87 1011.3
20180621001108 70 0 0.0 0.0 0.00 0.01 0.01 87 1011.2
20180621001008 70 0 0.0 0.0 0.00 0.01 0.01 87 1011.2
20180621000907 70 0 0.0 0.0 0.00 0.01 0.01 87 1011.2
20180621000808 70 0 0.0 0.0 0.00 0.01 0.01 87 1011.2
20180621000708 70 55 0.0 2.0 0.00 0.01 0.01 87 1011.2
20180621000607 70 56 0.0 2.0 0.00 0.01 0.01 87 1011.2
20180621000508 70 56 0.0 2.0 0.00 0.01 0.01 87 1011.2
20180621000408 71 56 0.0 2.0 0.00 0.01 0.01 87 1011.2
20180621000308 71 55 0.0 3.0 0.00 0.01 0.01 87 1011.2
20180621000208 71 55 0.0 3.0 0.00 0.01 0.01 87 1011.2
20180621000111 70 55 0.0 2.0 0.00 0.01 0.01 87 1010.9
20180621000107 71 55 0.0 3.0 0.00 0.01 0.01 87 1011.3
20180621000008 71 55 0.0 3.0 0.00 0.01 0.01 87 1011.3
20180620235909 71 55 0.0 3.0 0.00 0.01 0.01 87 1011.3
20180620235808 71 55 0.0 3.0 0.00 0.01 0.01 87 1011.3
20180620235708 71 55 0.0 3.0 0.00 0.01 0.01 87 1011.3
20180620235608 71 55 0.0 3.0 0.00 0.01 0.01 87 1011.3
20180620235507 71 55 0.0 3.0 0.00 0.01 0.01 87 1011.3
20180620235408 71 55 0.0 3.0 0.00 0.01 0.01 87 1011.3
20180620235308 71 0 0.0 0.0 0.00 0.01 0.01 87 1011.3
20180620235208 71 0 0.0 0.0 0.00 0.01 0.01 86 1011.3
20180620235108 71 0 0.0 0.0 0.00 0.01 0.01 87 1011.3
20180620235008 71 0 0.0 0.0 0.00 0.01 0.01 87 1011.3
20180620234908 71 0 0.0 0.0 0.00 0.01 0.01 87 1011.4
20180620234808 71 0 0.0 0.0 0.00 0.01 0.01 87 1011.4
20180620234708 71 0 0.0 0.0 0.00 0.01 0.01 87 1011.4
20180620234607 71 0 0.0 0.0 0.00 0.01 0.01 87 1011.4
20180620234509 71 0 0.0 0.0 0.00 0.01 0.01 87 1011.4
20180620234408 71 0 0.0 0.0 0.00 0.01 0.01 87 1011.4
20180620234307 71 0 0.0 0.0 0.00 0.01 0.01 87 1011.4
20180620234208 71 0 0.0 0.0 0.00 0.01 0.01 88 1011.4
20180620234108 71 63 0.0 0.0 0.00 0.01 0.01 88 1011.0
20180620234008 71 0 0.0 0.0 0.00 0.01 0.01 87 1011.3
20180620233908 71 0 0.0 0.0 0.00 0.01 0.01 87 1011.3
20180620233807 71 0 0.0 0.0 0.00 0.01 0.01 87 1011.3
20180620233708 71 0 0.0 0.0 0.00 0.01 0.01 87 1011.3
20180620233608 71 0 0.0 0.0 0.00 0.01 0.01 87 1011.3
20180620233507 71 63 0.0 3.0 0.00 0.01 0.01 87 1011.2
20180620233408 71 337 0.0 3.0 0.00 0.01 0.01 87 1011.2
20180620233310 71 322 0.0 3.0 0.00 0.01 0.01 87 1011.1
20180620233208 71 316 0.0 3.0 0.00 0.01 0.01 87 1011.1
20180620233107 71 315 0.0 3.0 0.00 0.01 0.01 87 1011.1
20180620233008 71 315 0.0 3.0 0.00 0.01 0.01 87 1011.1
20180620232908 71 312 0.0 3.0 0.00 0.01 0.01 87 1011.0
20180620232807 71 312 0.0 3.0 0.00 0.01 0.01 87 1011.0
20180620232708 71 312 0.0 3.0 0.00 0.01 0.01 87 1011.0